Time,TemperatureF,DewpointF,PressureIn,WindDirection,WindDirectionDegrees,WindSpeedMPH,WindSpeedGustMPH,Humidity,HourlyPrecipIn,Conditions,Clouds,dailyrainin,SoftwareType,DateUTC
2013-04-22 00:01:00,50.4,30.9,30.43,ESE,102,0.0,9.0,47,0.00,,,0.00,Wunderground v.1.15,2013-04-22 04:01:00,
2013-04-22 00:02:00,50.3,30.8,30.42,ESE,109,0.0,9.0,47,0.00,,,0.00,Wunderground v.1.15,2013-04-22 04:02:00,
2013-04-22 00:06:00,50.3,31.3,30.42,ESE,103,0.0,9.0,48,0.00,,,0.00,Wunderground v.1.15,2013-04-22 04:06:00,
2013-04-22 00:07:00,50.2,31.2,30.42,ESE,110,0.0,9.0,48,0.00,,,0.00,Wunderground v.1.15,2013-04-22 04:07:00,
2013-04-22 00:09:00,50.1,31.2,30.42,ESE,103,0.0,9.0,48,0.00,,,0.00,Wunderground v.1.15,2013-04-22 04:09:00,
2013-04-22 00:12:00,50.1,31.2,30.42,ESE,105,0.0,9.0,48,0.00,,,0.00,Wunderground v.1.15,2013-04-22 04:12:00,
2013-04-22 00:14:00,50.0,31.1,30.42,ESE,106,0.0,9.0,48,0.00,,,0.00,Wunderground v.1.15,2013-04-22 04:14:00,
2013-04-22 00:16:00,50.0,31.1,30.42,ESE,105,0.0,9.0,48,0.00,,,0.00,Wunderground v.1.15,2013-04-22 04:16:00,
2013-04-22 00:17:00,49.9,31.0,30.42,ESE,107,0.0,9.0,48,0.00,,,0.00,Wunderground v.1.15,2013-04-22 04:17:00,
2013-04-22 00:18:00,49.9,31.0,30.42,ESE,104,0.0,9.0,48,0.00,,,0.00,Wunderground v.1.15,2013-04-22 04:18:00,
2013-04-22 00:20:00,49.9,31.0,30.42,ESE,107,0.0,9.0,48,0.00,,,0.00,Wunderground v.1.15,2013-04-22 04:20:00,
2013-04-22 00:21:00,49.9,31.0,30.42,East,101,0.0,9.0,48,0.00,,,0.00,Wunderground v.1.15,2013-04-22 04:21:00,
2013-04-22 00:24:00,49.8,30.9,30.42,ESE,110,0.0,9.0,48,0.00,,,0.00,Wunderground v.1.15,2013-04-22 04:24:00,
2013-04-22 00:28:00,49.8,31.4,30.42,ESE,118,0.0,9.0,49,0.00,,,0.00,Wunderground v.1.15,2013-04-22 04:28:00,
2013-04-22 00:29:00,49.7,31.3,30.42,ESE,113,0.0,9.0,49,0.00,,,0.00,Wunderground v.1.15,2013-04-22 04:29:00,
2013-04-22 00:30:00,49.7,30.8,30.42,ESE,105,0.0,9.0,48,0.00,,,0.00,Wunderground v.1.15,2013-04-22 04:30:00,
2013-04-22 00:31:00,49.7,30.8,30.42,ESE,115,0.0,9.0,48,0.00,,,0.00,Wunderground v.1.15,2013-04-22 04:31:00,
2013-04-22 00:35:00,49.6,31.2,30.42,ESE,111,0.0,9.0,49,0.00,,,0.00,Wunderground v.1.15,2013-04-22 04:35:00,
2013-04-22 00:36:00,49.5,30.6,30.42,ESE,109,0.0,9.0,48,0.00,,,0.00,Wunderground v.1.15,2013-04-22 04:36:00,
2013-04-22 00:37:00,49.5,30.6,30.42,ESE,110,0.0,9.0,48,0.00,,,0.00,Wunderground v.1.15,2013-04-22 04:37:00,
2013-04-22 00:41:00,49.4,31.0,30.42,ESE,117,0.0,9.0,49,0.00,,,0.00,Wunderground v.1.15,2013-04-22 04:41:00,
2013-04-22 00:42:00,49.4,31.0,30.42,ENE,77,0.0,9.0,49,0.00,,,0.00,Wunderground v.1.15,2013-04-22 04:42:00,
2013-04-22 00:43:00,49.4,31.0,30.42,ESE,115,0.0,9.0,49,0.00,,,0.00,Wunderground v.1.15,2013-04-22 04:43:00,
2013-04-22 00:44:00,49.4,31.0,30.42,ESE,112,0.0,9.0,49,0.00,,,0.00,Wunderground v.1.15,2013-04-22 04:44:00,
2013-04-22 00:45:00,49.4,31.0,30.41,ESE,113,0.0,9.0,49,0.00,,,0.00,Wunderground v.1.15,2013-04-22 04:45:00,
2013-04-22 00:47:00,49.3,30.9,30.42,ESE,122,0.0,9.0,49,0.00,,,0.00,Wunderground v.1.15,2013-04-22 04:47:00,
2013-04-22 00:49:00,49.2,30.8,30.41,ESE,119,0.0,9.0,49,0.00,,,0.00,Wunderground v.1.15,2013-04-22 04:49:00,
2013-04-22 00:52:00,49.1,30.7,30.41,ESE,112,0.0,9.0,49,0.00,,,0.00,Wunderground v.1.15,2013-04-22 04:52:00,
2013-04-22 00:54:00,49.1,30.7,30.41,ESE,109,0.0,9.0,49,0.00,,,0.00,Wunderground v.1.15,2013-04-22 04:54:00,
2013-04-22 00:55:00,49.1,30.7,30.41,ESE,117,0.0,9.0,49,0.00,,,0.00,Wunderground v.1.15,2013-04-22 04:55:00,
2013-04-22 00:57:00,49.0,30.7,30.41,East,98,0.0,9.0,49,0.00,,,0.00,Wunderground v.1.15,2013-04-22 04:57:00,
2013-04-22 00:59:00,49.0,31.2,30.41,East,93,0.0,9.0,50,0.00,,,0.00,Wunderground v.1.15,2013-04-22 04:59:00,
2013-04-22 01:02:00,49.0,30.7,30.41,ESE,115,0.0,9.0,49,0.00,,,0.00,Wunderground v.1.15,2013-04-22 05:02:00,
2013-04-22 01:03:00,48.9,31.1,30.41,ESE,108,0.0,9.0,50,0.00,,,0.00,Wunderground v.1.15,2013-04-22 05:03:00,
2013-04-22 01:04:00,48.9,30.6,30.41,ESE,109,0.0,9.0,49,0.00,,,0.00,Wunderground v.1.15,2013-04-22 05:04:00,
2013-04-22 01:05:00,48.9,31.1,30.41,East,101,0.0,9.0,50,0.00,,,0.00,Wunderground v.1.15,2013-04-22 05:05:00,
2013-04-22 01:09:00,48.7,30.9,30.41,ESE,109,0.0,9.0,50,0.00,,,0.00,Wunderground v.1.15,2013-04-22 05:09:00,
2013-04-22 01:10:00,48.7,30.9,30.41,ESE,103,0.0,9.0,50,0.00,,,0.00,Wunderground v.1.15,2013-04-22 05:10:00,
2013-04-22 01:11:00,48.7,30.9,30.41,ESE,123,0.0,9.0,50,0.00,,,0.00,Wunderground v.1.15,2013-04-22 05:11:00,
2013-04-22 01:13:00,48.6,30.8,30.41,ESE,111,0.0,9.0,50,0.00,,,0.00,Wunderground v.1.15,2013-04-22 05:13:00,
2013-04-22 01:15:00,48.5,30.7,30.41,ESE,114,0.0,9.0,50,0.00,,,0.00,Wunderground v.1.15,2013-04-22 05:15:00,
2013-04-22 01:16:00,48.5,30.7,30.41,ESE,115,0.0,9.0,50,0.00,,,0.00,Wunderground v.1.15,2013-04-22 05:16:00,
2013-04-22 01:17:00,48.5,30.7,30.41,ESE,106,0.0,9.0,50,0.00,,,0.00,Wunderground v.1.15,2013-04-22 05:17:00,
2013-04-22 01:18:00,48.5,30.7,30.41,East,93,0.0,9.0,50,0.00,,,0.00,Wunderground v.1.15,2013-04-22 05:18:00,
2013-04-22 01:21:00,48.5,30.2,30.41,ESE,107,0.0,9.0,49,0.00,,,0.00,Wunderground v.1.15,2013-04-22 05:21:00,
2013-04-22 01:22:00,48.5,30.2,30.41,ESE,113,0.0,9.0,49,0.00,,,0.00,Wunderground v.1.15,2013-04-22 05:22:00,
2013-04-22 01:23:00,48.5,30.2,30.41,ESE,117,0.0,9.0,49,0.00,,,0.00,Wunderground v.1.15,2013-04-22 05:23:00,
2013-04-22 01:24:00,48.5,30.7,30.41,ESE,115,0.0,9.0,50,0.00,,,0.00,Wunderground v.1.15,2013-04-22 05:24:00,
2013-04-22 01:26:00,48.4,30.6,30.41,ESE,114,0.0,9.0,50,0.00,,,0.00,Wunderground v.1.15,2013-04-22 05:26:00,
2013-04-22 01:29:00,48.3,30.0,30.41,ESE,105,0.0,9.0,49,0.00,,,0.00,Wunderground v.1.15,2013-04-22 05:29:00,
2013-04-22 01:30:00,48.3,30.5,30.41,East,96,0.0,9.0,50,0.00,,,0.00,Wunderground v.1.15,2013-04-22 05:30:00,
2013-04-22 01:34:00,48.3,30.0,30.41,East,92,0.0,9.0,49,0.00,,,0.00,Wunderground v.1.15,2013-04-22 05:34:00,
2013-04-22 01:36:00,48.3,30.0,30.40,ESE,106,0.0,9.0,49,0.00,,,0.00,Wunderground v.1.15,2013-04-22 05:36:00,
2013-04-22 01:37:00,48.3,30.0,30.40,ESE,107,0.0,9.0,49,0.00,,,0.00,Wunderground v.1.15,2013-04-22 05:37:00,
2013-04-22 01:39:00,48.4,30.1,30.40,ESE,103,0.0,9.0,49,0.00,,,0.00,Wunderground v.1.15,2013-04-22 05:39:00,
2013-04-22 01:41:00,48.3,30.0,30.40,ESE,109,0.0,9.0,49,0.00,,,0.00,Wunderground v.1.15,2013-04-22 05:41:00,
2013-04-22 01:42:00,48.3,30.0,30.40,ESE,106,0.0,9.0,49,0.00,,,0.00,Wunderground v.1.15,2013-04-22 05:42:00,
2013-04-22 01:45:00,48.3,30.0,30.40,ESE,111,0.0,9.0,49,0.00,,,0.00,Wunderground v.1.15,2013-04-22 05:45:00,
2013-04-22 01:46:00,48.3,30.0,30.40,ESE,107,0.0,9.0,49,0.00,,,0.00,Wunderground v.1.15,2013-04-22 05:46:00,
2013-04-22 01:48:00,48.2,29.9,30.40,ESE,113,0.0,9.0,49,0.00,,,0.00,Wunderground v.1.15,2013-04-22 05:48:00,
2013-04-22 01:49:00,48.2,29.9,30.40,ESE,113,0.0,9.0,49,0.00,,,0.00,Wunderground v.1.15,2013-04-22 05:49:00,
2013-04-22 01:51:00,48.2,29.9,30.40,ESE,107,0.0,9.0,49,0.00,,,0.00,Wunderground v.1.15,2013-04-22 05:51:00,
2013-04-22 01:54:00,48.1,29.8,30.40,ESE,117,0.0,9.0,49,0.00,,,0.00,Wunderground v.1.15,2013-04-22 05:54:00,
2013-04-22 01:55:00,48.1,29.8,30.40,ESE,117,0.0,9.0,49,0.00,,,0.00,Wunderground v.1.15,2013-04-22 05:55:00,
2013-04-22 01:56:00,48.1,30.3,30.40,ESE,117,0.0,9.0,50,0.00,,,0.00,Wunderground v.1.15,2013-04-22 05:56:00,
2013-04-22 01:59:00,48.1,30.3,30.40,ESE,109,0.0,9.0,50,0.00,,,0.00,Wunderground v.1.15,2013-04-22 05:59:00,
2013-04-22 02:02:00,48.0,29.7,30.40,ESE,105,0.0,9.0,49,0.00,,,0.00,Wunderground v.1.15,2013-04-22 06:02:00,
2013-04-22 02:03:00,48.0,30.2,30.40,ESE,103,0.0,9.0,50,0.00,,,0.00,Wunderground v.1.15,2013-04-22 06:03:00,
2013-04-22 02:04:00,47.9,30.1,30.40,ESE,108,0.0,9.0,50,0.00,,,0.00,Wunderground v.1.15,2013-04-22 06:04:00,
2013-04-22 02:05:00,47.9,30.1,30.40,ESE,115,0.0,9.0,50,0.00,,,0.00,Wunderground v.1.15,2013-04-22 06:05:00,
2013-04-22 02:09:00,47.9,29.6,30.39,ESE,106,0.0,9.0,49,0.00,,,0.00,Wunderground v.1.15,2013-04-22 06:09:00,
2013-04-22 02:10:00,47.9,30.1,30.40,ESE,109,0.0,9.0,50,0.00,,,0.00,Wunderground v.1.15,2013-04-22 06:10:00,
2013-04-22 02:11:00,47.9,30.1,30.39,ESE,110,0.0,9.0,50,0.00,,,0.00,Wunderground v.1.15,2013-04-22 06:11:00,
2013-04-22 02:12:00,47.9,30.1,30.39,ESE,109,0.0,9.0,50,0.00,,,0.00,Wunderground v.1.15,2013-04-22 06:12:00,
2013-04-22 02:14:00,47.8,30.0,30.39,ESE,107,0.0,9.0,50,0.00,,,0.00,Wunderground v.1.15,2013-04-22 06:14:00,
2013-04-22 02:18:00,47.7,30.0,30.39,East,97,0.0,9.0,50,0.00,,,0.00,Wunderground v.1.15,2013-04-22 06:18:00,
2013-04-22 02:19:00,47.6,29.9,30.39,ESE,111,0.0,9.0,50,0.00,,,0.00,Wunderground v.1.15,2013-04-22 06:19:00,
2013-04-22 02:20:00,47.6,29.9,30.39,ESE,121,0.0,9.0,50,0.00,,,0.00,Wunderground v.1.15,2013-04-22 06:20:00,
2013-04-22 02:21:00,47.6,29.9,30.39,ESE,120,0.0,9.0,50,0.00,,,0.00,Wunderground v.1.15,2013-04-22 06:21:00,
2013-04-22 02:25:00,47.5,29.8,30.39,ESE,119,0.0,9.0,50,0.00,,,0.00,Wunderground v.1.15,2013-04-22 06:25:00,
2013-04-22 02:26:00,47.4,29.7,30.39,ESE,119,0.0,9.0,50,0.00,,,0.00,Wunderground v.1.15,2013-04-22 06:26:00,
2013-04-22 02:27:00,47.4,30.2,30.39,ESE,113,0.0,9.0,51,0.00,,,0.00,Wunderground v.1.15,2013-04-22 06:27:00,
2013-04-22 02:28:00,47.4,30.2,30.39,ESE,113,0.0,9.0,51,0.00,,,0.00,Wunderground v.1.15,2013-04-22 06:28:00,
2013-04-22 02:29:00,47.3,30.1,30.39,ESE,113,0.0,9.0,51,0.00,,,0.00,Wunderground v.1.15,2013-04-22 06:29:00,
2013-04-22 02:31:00,47.2,30.0,30.39,ESE,110,0.0,9.0,51,0.00,,,0.00,Wunderground v.1.15,2013-04-22 06:31:00,
2013-04-22 02:33:00,47.1,29.9,30.39,ESE,116,0.0,9.0,51,0.00,,,0.00,Wunderground v.1.15,2013-04-22 06:33:00,
2013-04-22 02:35:00,47.1,29.9,30.38,ESE,108,0.0,9.0,51,0.00,,,0.00,Wunderground v.1.15,2013-04-22 06:35:00,
2013-04-22 02:36:00,47.0,30.3,30.38,ESE,105,0.0,9.0,52,0.00,,,0.00,Wunderground v.1.15,2013-04-22 06:36:00,
2013-04-22 02:37:00,47.0,30.3,30.38,ESE,107,0.0,9.0,52,0.00,,,0.00,Wunderground v.1.15,2013-04-22 06:37:00,
2013-04-22 02:40:00,46.9,30.2,30.38,ESE,111,0.0,9.0,52,0.00,,,0.00,Wunderground v.1.15,2013-04-22 06:40:00,
2013-04-22 02:41:00,46.8,30.1,30.38,ESE,108,0.0,9.0,52,0.00,,,0.00,Wunderground v.1.15,2013-04-22 06:41:00,
2013-04-22 02:42:00,46.8,30.1,30.38,ESE,111,0.0,9.0,52,0.00,,,0.00,Wunderground v.1.15,2013-04-22 06:42:00,
2013-04-22 02:43:00,46.7,30.0,30.38,ESE,111,0.0,9.0,52,0.00,,,0.00,Wunderground v.1.15,2013-04-22 06:43:00,
2013-04-22 02:46:00,46.6,29.9,30.38,ESE,110,0.0,9.0,52,0.00,,,0.00,Wunderground v.1.15,2013-04-22 06:46:00,
2013-04-22 02:47:00,46.6,29.9,30.38,ESE,107,0.0,9.0,52,0.00,,,0.00,Wunderground v.1.15,2013-04-22 06:47:00,
2013-04-22 02:49:00,46.5,30.3,30.38,ESE,108,0.0,9.0,53,0.00,,,0.00,Wunderground v.1.15,2013-04-22 06:49:00,
2013-04-22 02:50:00,46.5,29.8,30.38,ESE,108,0.0,9.0,52,0.00,,,0.00,Wunderground v.1.15,2013-04-22 06:50:00,
2013-04-22 02:54:00,46.4,30.2,30.38,ESE,123,0.0,9.0,53,0.00,,,0.00,Wunderground v.1.15,2013-04-22 06:54:00,
2013-04-22 02:58:00,46.2,30.0,30.38,ESE,123,0.0,9.0,53,0.00,,,0.00,Wunderground v.1.15,2013-04-22 06:58:00,
2013-04-22 02:59:00,46.2,30.0,30.38,ESE,122,0.0,9.0,53,0.00,,,0.00,Wunderground v.1.15,2013-04-22 06:59:00,
2013-04-22 03:03:00,46.0,29.8,30.38,ESE,122,0.0,9.0,53,0.00,,,0.00,Wunderground v.1.15,2013-04-22 07:03:00,
2013-04-22 03:05:00,46.0,29.8,30.38,ESE,122,0.0,9.0,53,0.00,,,0.00,Wunderground v.1.15,2013-04-22 07:05:00,
2013-04-22 03:07:00,45.9,29.7,30.38,ESE,122,0.0,9.0,53,0.00,,,0.00,Wunderground v.1.15,2013-04-22 07:07:00,
2013-04-22 03:08:00,45.8,29.6,30.38,ESE,122,0.0,9.0,53,0.00,,,0.00,Wunderground v.1.15,2013-04-22 07:08:00,
2013-04-22 03:13:00,45.8,29.6,30.38,ESE,122,0.0,9.0,53,0.00,,,0.00,Wunderground v.1.15,2013-04-22 07:13:00,
2013-04-22 03:16:00,45.7,29.5,30.38,ESE,122,0.0,9.0,53,0.00,,,0.00,Wunderground v.1.15,2013-04-22 07:16:00,
2013-04-22 03:17:00,45.7,29.5,30.37,ESE,122,0.0,9.0,53,0.00,,,0.00,Wunderground v.1.15,2013-04-22 07:17:00,
2013-04-22 03:18:00,45.8,29.6,30.37,ESE,122,0.0,9.0,53,0.00,,,0.00,Wunderground v.1.15,2013-04-22 07:18:00,
2013-04-22 03:20:00,45.7,29.5,30.38,SE,126,0.0,9.0,53,0.00,,,0.00,Wunderground v.1.15,2013-04-22 07:20:00,
2013-04-22 03:21:00,45.7,29.5,30.38,SE,126,0.0,9.0,53,0.00,,,0.00,Wunderground v.1.15,2013-04-22 07:21:00,
2013-04-22 03:23:00,45.7,29.5,30.38,SE,126,0.0,9.0,53,0.00,,,0.00,Wunderground v.1.15,2013-04-22 07:23:00,
2013-04-22 03:25:00,45.7,29.5,30.37,SE,126,0.0,9.0,53,0.00,,,0.00,Wunderground v.1.15,2013-04-22 07:25:00,
2013-04-22 03:26:00,45.7,29.5,30.38,ESE,122,0.0,9.0,53,0.00,,,0.00,Wunderground v.1.15,2013-04-22 07:26:00,
2013-04-22 03:27:00,45.7,29.5,30.37,ESE,122,0.0,9.0,53,0.00,,,0.00,Wunderground v.1.15,2013-04-22 07:27:00,
2013-04-22 03:28:00,45.7,29.5,30.37,ESE,121,0.0,9.0,53,0.00,,,0.00,Wunderground v.1.15,2013-04-22 07:28:00,
2013-04-22 03:30:00,45.7,29.5,30.37,ESE,121,0.0,9.0,53,0.00,,,0.00,Wunderground v.1.15,2013-04-22 07:30:00,
2013-04-22 03:32:00,45.7,29.1,30.38,ESE,120,0.0,9.0,52,0.00,,,0.00,Wunderground v.1.15,2013-04-22 07:32:00,
2013-04-22 03:34:00,45.7,29.5,30.37,ESE,118,0.0,9.0,53,0.00,,,0.00,Wunderground v.1.15,2013-04-22 07:34:00,
2013-04-22 03:35:00,45.7,29.1,30.37,ESE,118,0.0,9.0,52,0.00,,,0.00,Wunderground v.1.15,2013-04-22 07:35:00,
2013-04-22 03:37:00,45.7,29.1,30.37,ESE,118,0.0,9.0,52,0.00,,,0.00,Wunderground v.1.15,2013-04-22 07:37:00,
2013-04-22 03:40:00,45.8,29.2,30.37,ESE,118,0.0,9.0,52,0.00,,,0.00,Wunderground v.1.15,2013-04-22 07:40:00,
2013-04-22 03:42:00,45.8,29.2,30.37,ESE,113,0.0,9.0,52,0.00,,,0.00,Wunderground v.1.15,2013-04-22 07:42:00,
2013-04-22 03:43:00,45.8,29.2,30.37,ESE,113,0.0,9.0,52,0.00,,,0.00,Wunderground v.1.15,2013-04-22 07:43:00,
2013-04-22 03:47:00,45.8,29.2,30.37,ESE,113,0.0,9.0,52,0.00,,,0.00,Wunderground v.1.15,2013-04-22 07:47:00,
2013-04-22 03:48:00,45.8,29.2,30.37,ESE,105,0.0,9.0,52,0.00,,,0.00,Wunderground v.1.15,2013-04-22 07:48:00,
2013-04-22 03:49:00,45.8,29.2,30.37,ESE,105,0.0,9.0,52,0.00,,,0.00,Wunderground v.1.15,2013-04-22 07:49:00,
2013-04-22 03:52:00,45.8,29.2,30.37,ESE,107,0.0,9.0,52,0.00,,,0.00,Wunderground v.1.15,2013-04-22 07:52:00,
2013-04-22 03:54:00,45.8,28.7,30.37,ESE,106,0.0,9.0,51,0.00,,,0.00,Wunderground v.1.15,2013-04-22 07:54:00,
2013-04-22 03:55:00,45.8,28.7,30.37,ESE,106,0.0,9.0,51,0.00,,,0.00,Wunderground v.1.15,2013-04-22 07:55:00,
2013-04-22 03:56:00,45.8,29.2,30.37,ESE,106,0.0,9.0,52,0.00,,,0.00,Wunderground v.1.15,2013-04-22 07:56:00,
2013-04-22 03:57:00,45.8,29.2,30.37,ESE,106,0.0,9.0,52,0.00,,,0.00,Wunderground v.1.15,2013-04-22 07:57:00,
2013-04-22 04:01:00,45.8,29.2,30.37,ESE,107,0.0,9.0,52,0.00,,,0.00,Wunderground v.1.15,2013-04-22 08:01:00,
2013-04-22 04:02:00,45.8,28.7,30.37,ESE,107,0.0,9.0,51,0.00,,,0.00,Wunderground v.1.15,2013-04-22 08:02:00,
2013-04-22 04:03:00,45.8,28.7,30.37,ESE,107,0.0,9.0,51,0.00,,,0.00,Wunderground v.1.15,2013-04-22 08:03:00,
2013-04-22 04:07:00,45.7,29.1,30.37,East,98,0.0,9.0,52,0.00,,,0.00,Wunderground v.1.15,2013-04-22 08:07:00,
2013-04-22 04:08:00,45.7,29.1,30.37,ESE,105,0.0,9.0,52,0.00,,,0.00,Wunderground v.1.15,2013-04-22 08:08:00,
2013-04-22 04:10:00,45.7,29.1,30.37,ESE,106,0.0,9.0,52,0.00,,,0.00,Wunderground v.1.15,2013-04-22 08:10:00,
2013-04-22 04:13:00,45.6,29.0,30.37,ESE,106,0.0,9.0,52,0.00,,,0.00,Wunderground v.1.15,2013-04-22 08:13:00,
2013-04-22 04:15:00,45.6,29.0,30.37,ESE,106,0.0,9.0,52,0.00,,,0.00,Wunderground v.1.15,2013-04-22 08:15:00,
2013-04-22 04:16:00,45.6,29.0,30.37,ESE,107,0.0,9.0,52,0.00,,,0.00,Wunderground v.1.15,2013-04-22 08:16:00,
2013-04-22 04:17:00,45.6,29.0,30.37,ESE,107,0.0,9.0,52,0.00,,,0.00,Wunderground v.1.15,2013-04-22 08:17:00,
2013-04-22 04:20:00,45.5,28.9,30.37,ESE,109,0.0,9.0,52,0.00,,,0.00,Wunderground v.1.15,2013-04-22 08:20:00,
2013-04-22 04:21:00,45.5,28.9,30.37,ESE,109,0.0,9.0,52,0.00,,,0.00,Wunderground v.1.15,2013-04-22 08:21:00,
2013-04-22 04:22:00,45.5,28.9,30.37,ESE,109,0.0,9.0,52,0.00,,,0.00,Wunderground v.1.15,2013-04-22 08:22:00,
2013-04-22 04:27:00,45.4,28.8,30.37,ESE,115,0.0,9.0,52,0.00,,,0.00,Wunderground v.1.15,2013-04-22 08:27:00,
2013-04-22 04:28:00,45.4,28.8,30.37,ESE,115,0.0,9.0,52,0.00,,,0.00,Wunderground v.1.15,2013-04-22 08:28:00,
2013-04-22 04:29:00,45.4,28.8,30.37,ESE,115,0.0,9.0,52,0.00,,,0.00,Wunderground v.1.15,2013-04-22 08:29:00,
2013-04-22 04:30:00,45.3,28.7,30.37,ESE,105,0.0,9.0,52,0.00,,,0.00,Wunderground v.1.15,2013-04-22 08:30:00,
2013-04-22 04:32:00,45.3,29.2,30.37,ESE,105,0.0,9.0,53,0.00,,,0.00,Wunderground v.1.15,2013-04-22 08:32:00,
2013-04-22 04:33:00,45.3,28.7,30.37,ESE,109,0.0,9.0,52,0.00,,,0.00,Wunderground v.1.15,2013-04-22 08:33:00,
2013-04-22 04:34:00,45.3,28.7,30.37,ESE,103,0.0,9.0,52,0.00,,,0.00,Wunderground v.1.15,2013-04-22 08:34:00,
2013-04-22 04:37:00,45.3,28.7,30.37,ESE,109,0.0,9.0,52,0.00,,,0.00,Wunderground v.1.15,2013-04-22 08:37:00,
2013-04-22 04:39:00,45.3,29.2,30.37,ESE,107,0.0,9.0,53,0.00,,,0.00,Wunderground v.1.15,2013-04-22 08:39:00,
2013-04-22 04:40:00,45.3,29.2,30.37,ESE,107,0.0,9.0,53,0.00,,,0.00,Wunderground v.1.15,2013-04-22 08:40:00,
2013-04-22 04:42:00,45.3,29.2,30.37,ESE,111,0.0,9.0,53,0.00,,,0.00,Wunderground v.1.15,2013-04-22 08:42:00,
2013-04-22 04:46:00,45.2,29.1,30.37,ESE,110,0.0,9.0,53,0.00,,,0.00,Wunderground v.1.15,2013-04-22 08:46:00,
2013-04-22 04:47:00,45.2,29.1,30.37,ESE,115,0.0,9.0,53,0.00,,,0.00,Wunderground v.1.15,2013-04-22 08:47:00,
2013-04-22 04:49:00,45.2,29.1,30.37,ESE,115,0.0,9.0,53,0.00,,,0.00,Wunderground v.1.15,2013-04-22 08:49:00,
2013-04-22 04:52:00,45.1,29.0,30.37,ESE,115,0.0,9.0,53,0.00,,,0.00,Wunderground v.1.15,2013-04-22 08:52:00,
2013-04-22 04:54:00,45.1,29.0,30.37,ESE,115,0.0,9.0,53,0.00,,,0.00,Wunderground v.1.15,2013-04-22 08:54:00,
2013-04-22 04:55:00,45.1,29.0,30.37,ESE,115,0.0,9.0,53,0.00,,,0.00,Wunderground v.1.15,2013-04-22 08:55:00,
2013-04-22 04:58:00,45.1,29.0,30.37,ESE,117,0.0,9.0,53,0.00,,,0.00,Wunderground v.1.15,2013-04-22 08:58:00,
2013-04-22 05:00:00,45.0,28.9,30.37,ESE,117,0.0,9.0,53,0.00,,,0.00,Wunderground v.1.15,2013-04-22 09:00:00,
2013-04-22 05:02:00,45.0,28.9,30.37,ESE,117,0.0,9.0,53,0.00,,,0.00,Wunderground v.1.15,2013-04-22 09:02:00,
2013-04-22 05:04:00,45.0,28.9,30.37,ESE,118,0.0,9.0,53,0.00,,,0.00,Wunderground v.1.15,2013-04-22 09:04:00,
2013-04-22 05:06:00,44.9,28.8,30.37,ESE,117,0.0,9.0,53,0.00,,,0.00,Wunderground v.1.15,2013-04-22 09:06:00,
2013-04-22 05:07:00,44.9,28.8,30.37,ESE,117,0.0,9.0,53,0.00,,,0.00,Wunderground v.1.15,2013-04-22 09:07:00,
2013-04-22 05:08:00,44.9,28.8,30.37,ESE,117,0.0,9.0,53,0.00,,,0.00,Wunderground v.1.15,2013-04-22 09:08:00,
2013-04-22 05:11:00,44.8,28.7,30.37,ESE,119,0.0,9.0,53,0.00,,,0.00,Wunderground v.1.15,2013-04-22 09:11:00,
2013-04-22 05:13:00,44.8,29.2,30.37,ESE,119,0.0,9.0,54,0.00,,,0.00,Wunderground v.1.15,2013-04-22 09:13:00,
2013-04-22 05:14:00,44.8,29.2,30.37,ESE,119,0.0,9.0,54,0.00,,,0.00,Wunderground v.1.15,2013-04-22 09:14:00,
2013-04-22 05:16:00,44.7,29.1,30.37,ESE,119,0.0,9.0,54,0.00,,,0.00,Wunderground v.1.15,2013-04-22 09:16:00,
2013-04-22 05:17:00,44.7,29.1,30.37,ESE,119,0.0,9.0,54,0.00,,,0.00,Wunderground v.1.15,2013-04-22 09:17:00,
2013-04-22 05:21:00,44.6,29.4,30.37,ESE,119,0.0,9.0,55,0.00,,,0.00,Wunderground v.1.15,2013-04-22 09:21:00,
2013-04-22 05:22:00,44.6,29.0,30.37,ESE,119,0.0,9.0,54,0.00,,,0.00,Wunderground v.1.15,2013-04-22 09:22:00,
2013-04-22 05:23:00,44.6,29.0,30.37,ESE,120,0.0,9.0,54,0.00,,,0.00,Wunderground v.1.15,2013-04-22 09:23:00,
2013-04-22 05:25:00,44.6,29.4,30.37,ESE,120,0.0,9.0,55,0.00,,,0.00,Wunderground v.1.15,2013-04-22 09:25:00,
2013-04-22 05:29:00,44.5,29.3,30.37,ESE,120,0.0,9.0,55,0.00,,,0.00,Wunderground v.1.15,2013-04-22 09:29:00,
2013-04-22 05:30:00,44.5,29.8,30.37,ESE,120,0.0,9.0,56,0.00,,,0.00,Wunderground v.1.15,2013-04-22 09:30:00,
2013-04-22 05:31:00,44.5,29.8,30.37,ESE,122,0.0,9.0,56,0.00,,,0.00,Wunderground v.1.15,2013-04-22 09:31:00,
2013-04-22 05:32:00,44.4,29.7,30.37,ESE,121,0.0,9.0,56,0.00,,,0.00,Wunderground v.1.15,2013-04-22 09:32:00,
2013-04-22 05:36:00,44.3,29.6,30.37,ESE,121,0.0,9.0,56,0.00,,,0.00,Wunderground v.1.15,2013-04-22 09:36:00,
2013-04-22 05:37:00,44.3,29.6,30.37,ESE,121,0.0,9.0,56,0.00,,,0.00,Wunderground v.1.15,2013-04-22 09:37:00,
2013-04-22 05:38:00,44.2,29.5,30.37,ESE,121,0.0,9.0,56,0.00,,,0.00,Wunderground v.1.15,2013-04-22 09:38:00,
2013-04-22 05:39:00,44.2,29.5,30.37,ESE,121,0.0,9.0,56,0.00,,,0.00,Wunderground v.1.15,2013-04-22 09:39:00,
2013-04-22 05:41:00,44.2,29.9,30.37,ESE,121,0.0,9.0,57,0.00,,,0.00,Wunderground v.1.15,2013-04-22 09:41:00,
2013-04-22 05:43:00,44.1,29.8,30.37,ESE,121,0.0,9.0,57,0.00,,,0.00,Wunderground v.1.15,2013-04-22 09:43:00,
2013-04-22 05:44:00,44.1,29.4,30.37,ESE,123,0.0,9.0,56,0.00,,,0.00,Wunderground v.1.15,2013-04-22 09:44:00,
2013-04-22 05:46:00,44.1,29.8,30.37,ESE,123,0.0,9.0,57,0.00,,,0.00,Wunderground v.1.15,2013-04-22 09:46:00,
2013-04-22 05:48:00,44.0,29.7,30.37,ESE,123,0.0,9.0,57,0.00,,,0.00,Wunderground v.1.15,2013-04-22 09:48:00,
2013-04-22 05:49:00,44.0,29.7,30.37,ESE,123,0.0,9.0,57,0.00,,,0.00,Wunderground v.1.15,2013-04-22 09:49:00,
2013-04-22 05:51:00,43.9,29.6,30.37,ESE,123,0.0,9.0,57,0.00,,,0.00,Wunderground v.1.15,2013-04-22 09:51:00,
2013-04-22 05:54:00,43.9,30.1,30.37,ESE,123,0.0,9.0,58,0.00,,,0.00,Wunderground v.1.15,2013-04-22 09:54:00,
2013-04-22 05:55:00,43.8,30.0,30.37,ESE,123,0.0,9.0,58,0.00,,,0.00,Wunderground v.1.15,2013-04-22 09:55:00,
2013-04-22 05:57:00,43.8,30.0,30.37,ESE,123,0.0,9.0,58,0.00,,,0.00,Wunderground v.1.15,2013-04-22 09:57:00,
2013-04-22 05:58:00,43.8,30.0,30.37,ESE,123,0.0,9.0,58,0.00,,,0.00,Wunderground v.1.15,2013-04-22 09:58:00,
2013-04-22 06:01:00,43.7,29.9,30.37,ESE,123,0.0,9.0,58,0.00,,,0.00,Wunderground v.1.15,2013-04-22 10:01:00,
2013-04-22 06:03:00,43.7,29.9,30.37,ESE,123,0.0,9.0,58,0.00,,,0.00,Wunderground v.1.15,2013-04-22 10:03:00,
2013-04-22 06:04:00,43.7,29.9,30.37,ESE,123,0.0,9.0,58,0.00,,,0.00,Wunderground v.1.15,2013-04-22 10:04:00,
2013-04-22 06:07:00,43.6,29.8,30.37,ESE,123,0.0,9.0,58,0.00,,,0.00,Wunderground v.1.15,2013-04-22 10:07:00,
2013-04-22 06:08:00,43.6,30.2,30.37,ESE,123,0.0,9.0,59,0.00,,,0.00,Wunderground v.1.15,2013-04-22 10:08:00,
2013-04-22 06:10:00,43.6,30.2,30.37,ESE,123,0.0,9.0,59,0.00,,,0.00,Wunderground v.1.15,2013-04-22 10:10:00,
2013-04-22 06:12:00,43.6,29.8,30.37,ESE,123,0.0,9.0,58,0.00,,,0.00,Wunderground v.1.15,2013-04-22 10:12:00,
2013-04-22 06:14:00,43.6,29.8,30.37,ESE,123,0.0,9.0,58,0.00,,,0.00,Wunderground v.1.15,2013-04-22 10:14:00,
2013-04-22 06:15:00,43.5,29.7,30.37,ESE,123,0.0,9.0,58,0.00,,,0.00,Wunderground v.1.15,2013-04-22 10:15:00,
2013-04-22 06:19:00,43.5,29.7,30.37,SE,129,0.0,9.0,58,0.00,,,0.00,Wunderground v.1.15,2013-04-22 10:19:00,
2013-04-22 06:21:00,43.5,29.7,30.37,SE,129,0.0,9.0,58,0.00,,,0.00,Wunderground v.1.15,2013-04-22 10:21:00,
2013-04-22 06:22:00,43.5,29.7,30.37,SE,129,0.0,9.0,58,0.00,,,0.00,Wunderground v.1.15,2013-04-22 10:22:00,
2013-04-22 06:24:00,43.5,29.7,30.37,SE,129,0.0,9.0,58,0.00,,,0.00,Wunderground v.1.15,2013-04-22 10:24:00,
2013-04-22 06:25:00,43.5,29.7,30.37,SE,129,0.0,9.0,58,0.00,,,0.00,Wunderground v.1.15,2013-04-22 10:25:00,
2013-04-22 06:27:00,43.5,29.7,30.38,SE,129,0.0,9.0,58,0.00,,,0.00,Wunderground v.1.15,2013-04-22 10:27:00,
2013-04-22 06:30:00,43.4,29.6,30.38,SE,129,0.0,9.0,58,0.00,,,0.00,Wunderground v.1.15,2013-04-22 10:30:00,
2013-04-22 06:32:00,43.4,29.6,30.38,SE,129,0.0,9.0,58,0.00,,,0.00,Wunderground v.1.15,2013-04-22 10:32:00,
2013-04-22 06:33:00,43.4,29.6,30.38,SE,129,0.0,9.0,58,0.00,,,0.00,Wunderground v.1.15,2013-04-22 10:33:00,
2013-04-22 06:35:00,43.4,29.6,30.38,SE,129,0.0,9.0,58,0.00,,,0.00,Wunderground v.1.15,2013-04-22 10:35:00,
2013-04-22 06:36:00,43.4,29.6,30.38,SE,129,0.0,9.0,58,0.00,,,0.00,Wunderground v.1.15,2013-04-22 10:36:00,
2013-04-22 06:38:00,43.4,29.6,30.38,SE,129,0.0,9.0,58,0.00,,,0.00,Wunderground v.1.15,2013-04-22 10:38:00,
2013-04-22 06:41:00,43.4,29.6,30.38,SE,129,0.0,9.0,58,0.00,,,0.00,Wunderground v.1.15,2013-04-22 10:41:00,
2013-04-22 06:43:00,43.4,29.6,30.38,SE,129,0.0,9.0,58,0.00,,,0.00,Wunderground v.1.15,2013-04-22 10:43:00,
2013-04-22 06:44:00,43.4,29.6,30.38,SE,129,0.0,9.0,58,0.00,,,0.00,Wunderground v.1.15,2013-04-22 10:44:00,
2013-04-22 06:48:00,43.5,29.7,30.38,SE,129,0.0,9.0,58,0.00,,,0.00,Wunderground v.1.15,2013-04-22 10:48:00,
2013-04-22 06:52:00,43.5,29.7,30.38,SE,129,0.0,9.0,58,0.00,,,0.00,Wunderground v.1.15,2013-04-22 10:52:00,
2013-04-22 06:53:00,43.4,29.6,30.38,SE,129,0.0,9.0,58,0.00,,,0.00,Wunderground v.1.15,2013-04-22 10:53:00,
2013-04-22 06:54:00,43.4,29.6,30.38,SE,129,0.0,9.0,58,0.00,,,0.00,Wunderground v.1.15,2013-04-22 10:54:00,
2013-04-22 06:56:00,43.4,30.0,30.38,SE,129,0.0,9.0,59,0.00,,,0.00,Wunderground v.1.15,2013-04-22 10:56:00,
2013-04-22 06:58:00,43.4,30.0,30.38,SE,129,0.0,9.0,59,0.00,,,0.00,Wunderground v.1.15,2013-04-22 10:58:00,
2013-04-22 06:59:00,43.4,30.0,30.38,SE,129,0.0,9.0,59,0.00,,,0.00,Wunderground v.1.15,2013-04-22 10:59:00,
2013-04-22 07:01:00,43.4,30.0,30.38,SE,129,0.0,9.0,59,0.00,,,0.00,Wunderground v.1.15,2013-04-22 11:01:00,
2013-04-22 07:03:00,43.4,30.0,30.38,SE,129,0.0,9.0,59,0.00,,,0.00,Wunderground v.1.15,2013-04-22 11:03:00,
2013-04-22 07:04:00,43.4,30.0,30.39,SE,129,0.0,9.0,59,0.00,,,0.00,Wunderground v.1.15,2013-04-22 11:04:00,
2013-04-22 07:06:00,43.4,30.0,30.38,SE,129,0.0,9.0,59,0.00,,,0.00,Wunderground v.1.15,2013-04-22 11:06:00,
2013-04-22 07:08:00,43.5,30.1,30.38,SE,129,0.0,9.0,59,0.00,,,0.00,Wunderground v.1.15,2013-04-22 11:08:00,
2013-04-22 07:09:00,43.5,30.1,30.39,SE,129,0.0,9.0,59,0.00,,,0.00,Wunderground v.1.15,2013-04-22 11:09:00,
2013-04-22 07:11:00,43.5,30.1,30.39,SE,129,0.0,9.0,59,0.00,,,0.00,Wunderground v.1.15,2013-04-22 11:11:00,
2013-04-22 07:12:00,43.5,30.1,30.39,SE,129,0.0,9.0,59,0.00,,,0.00,Wunderground v.1.15,2013-04-22 11:12:00,
2013-04-22 07:17:00,43.6,30.6,30.39,SE,129,0.0,9.0,60,0.00,,,0.00,Wunderground v.1.15,2013-04-22 11:17:00,
2013-04-22 07:18:00,43.6,30.6,30.39,SE,129,0.0,9.0,60,0.00,,,0.00,Wunderground v.1.15,2013-04-22 11:18:00,
2013-04-22 07:19:00,43.6,30.6,30.39,SE,129,0.0,9.0,60,0.00,,,0.00,Wunderground v.1.15,2013-04-22 11:19:00,
2013-04-22 07:21:00,43.6,30.6,30.39,SE,129,0.0,9.0,60,0.00,,,0.00,Wunderground v.1.15,2013-04-22 11:21:00,
2013-04-22 07:24:00,43.6,30.6,30.39,SE,129,0.0,9.0,60,0.00,,,0.00,Wunderground v.1.15,2013-04-22 11:24:00,
2013-04-22 07:25:00,43.6,30.6,30.39,SE,129,0.0,9.0,60,0.00,,,0.00,Wunderground v.1.15,2013-04-22 11:25:00,
2013-04-22 07:27:00,43.6,30.6,30.39,SE,129,0.0,9.0,60,0.00,,,0.00,Wunderground v.1.15,2013-04-22 11:27:00,
2013-04-22 07:28:00,43.6,30.6,30.39,SE,129,0.0,9.0,60,0.00,,,0.00,Wunderground v.1.15,2013-04-22 11:28:00,
2013-04-22 07:31:00,43.6,30.6,30.39,SE,129,0.0,9.0,60,0.00,,,0.00,Wunderground v.1.15,2013-04-22 11:31:00,
2013-04-22 07:32:00,43.6,30.6,30.39,SE,129,0.0,9.0,60,0.00,,,0.00,Wunderground v.1.15,2013-04-22 11:32:00,
2013-04-22 07:33:00,43.6,31.0,30.39,SE,129,0.0,9.0,61,0.00,,,0.00,Wunderground v.1.15,2013-04-22 11:33:00,
2013-04-22 07:35:00,43.6,31.0,30.39,SE,129,0.0,9.0,61,0.00,,,0.00,Wunderground v.1.15,2013-04-22 11:35:00,
2013-04-22 07:36:00,43.6,31.0,30.39,SE,129,0.0,9.0,61,0.00,,,0.00,Wunderground v.1.15,2013-04-22 11:36:00,
2013-04-22 07:38:00,43.7,31.5,30.39,SE,128,0.0,9.0,62,0.00,,,0.00,Wunderground v.1.15,2013-04-22 11:38:00,
2013-04-22 07:40:00,43.7,31.1,30.39,SE,129,0.0,9.0,61,0.00,,,0.00,Wunderground v.1.15,2013-04-22 11:40:00,
2013-04-22 07:41:00,43.7,31.1,30.39,SE,129,0.0,9.0,61,0.00,,,0.00,Wunderground v.1.15,2013-04-22 11:41:00,
2013-04-22 07:42:00,43.8,31.2,30.39,SE,129,0.0,9.0,61,0.00,,,0.00,Wunderground v.1.15,2013-04-22 11:42:00,
2013-04-22 07:43:00,43.8,31.2,30.39,SE,129,0.0,9.0,61,0.00,,,0.00,Wunderground v.1.15,2013-04-22 11:43:00,
2013-04-22 07:47:00,43.9,31.3,30.40,SE,129,0.0,9.0,61,0.00,,,0.00,Wunderground v.1.15,2013-04-22 11:47:00,
2013-04-22 07:48:00,44.0,31.4,30.40,SE,129,0.0,9.0,61,0.00,,,0.00,Wunderground v.1.15,2013-04-22 11:48:00,
2013-04-22 07:49:00,44.0,31.4,30.39,SE,129,0.0,9.0,61,0.00,,,0.00,Wunderground v.1.15,2013-04-22 11:49:00,
2013-04-22 07:50:00,44.1,31.5,30.40,SE,129,0.0,9.0,61,0.00,,,0.00,Wunderground v.1.15,2013-04-22 11:50:00,
2013-04-22 07:52:00,44.2,31.6,30.40,SE,129,0.0,9.0,61,0.00,,,0.00,Wunderground v.1.15,2013-04-22 11:52:00,
2013-04-22 07:53:00,44.2,31.6,30.40,ESE,113,0.0,9.0,61,0.00,,,0.00,Wunderground v.1.15,2013-04-22 11:53:00,
2013-04-22 07:54:00,44.3,31.7,30.40,ESE,113,0.0,9.0,61,0.00,,,0.00,Wunderground v.1.15,2013-04-22 11:54:00,
2013-04-22 07:56:00,44.4,32.2,30.40,ESE,113,0.0,9.0,62,0.00,,,0.00,Wunderground v.1.15,2013-04-22 11:56:00,
2013-04-22 07:59:00,44.6,32.4,30.40,ESE,113,0.0,9.0,62,0.00,,,0.00,Wunderground v.1.15,2013-04-22 11:59:00,
2013-04-22 08:02:00,44.8,32.6,30.40,ESE,113,0.0,9.0,62,0.00,,,0.00,Wunderground v.1.15,2013-04-22 12:02:00,
2013-04-22 08:03:00,44.8,32.6,30.40,ESE,113,0.0,9.0,62,0.00,,,0.00,Wunderground v.1.15,2013-04-22 12:03:00,
2013-04-22 08:04:00,44.9,33.1,30.40,ESE,113,0.0,9.0,63,0.00,,,0.00,Wunderground v.1.15,2013-04-22 12:04:00,
2013-04-22 08:05:00,45.0,33.2,30.40,ESE,113,0.0,9.0,63,0.00,,,0.00,Wunderground v.1.15,2013-04-22 12:05:00,
2013-04-22 08:09:00,45.2,33.3,30.40,ESE,113,0.0,9.0,63,0.00,,,0.00,Wunderground v.1.15,2013-04-22 12:09:00,
2013-04-22 08:11:00,45.4,33.5,30.40,ESE,113,0.0,9.0,63,0.00,,,0.00,Wunderground v.1.15,2013-04-22 12:11:00,
2013-04-22 08:12:00,45.5,33.6,30.40,ESE,111,0.0,9.0,63,0.00,,,0.00,Wunderground v.1.15,2013-04-22 12:12:00,
2013-04-22 08:15:00,45.7,33.4,30.40,ESE,113,0.0,9.0,62,0.00,,,0.00,Wunderground v.1.15,2013-04-22 12:15:00,
2013-04-22 08:16:00,45.8,33.5,30.40,ESE,113,0.0,9.0,62,0.00,,,0.00,Wunderground v.1.15,2013-04-22 12:16:00,
2013-04-22 08:19:00,46.1,34.2,30.40,ESE,113,0.0,9.0,63,0.00,,,0.00,Wunderground v.1.15,2013-04-22 12:19:00,
2013-04-22 08:20:00,46.3,34.0,30.40,ESE,113,0.0,9.0,62,0.00,,,0.00,Wunderground v.1.15,2013-04-22 12:20:00,
2013-04-22 08:21:00,46.4,34.1,30.40,ESE,113,0.0,9.0,62,0.00,,,0.00,Wunderground v.1.15,2013-04-22 12:21:00,
2013-04-22 08:25:00,46.7,34.4,30.40,SE,130,0.0,9.0,62,0.00,,,0.00,Wunderground v.1.15,2013-04-22 12:25:00,
2013-04-22 08:26:00,46.8,34.5,30.40,SE,130,0.0,9.0,62,0.00,,,0.00,Wunderground v.1.15,2013-04-22 12:26:00,
2013-04-22 08:27:00,47.0,34.6,30.40,SE,130,0.0,9.0,62,0.00,,,0.00,Wunderground v.1.15,2013-04-22 12:27:00,
2013-04-22 08:31:00,47.3,34.9,30.40,SE,129,0.0,9.0,62,0.00,,,0.00,Wunderground v.1.15,2013-04-22 12:31:00,
2013-04-22 08:32:00,47.4,35.0,30.40,SE,129,0.0,9.0,62,0.00,,,0.00,Wunderground v.1.15,2013-04-22 12:32:00,
2013-04-22 08:36:00,47.7,35.3,30.40,ESE,123,0.0,9.0,62,0.00,,,0.00,Wunderground v.1.15,2013-04-22 12:36:00,
2013-04-22 08:37:00,47.8,35.8,30.40,SSE,152,0.0,9.0,63,0.00,,,0.00,Wunderground v.1.15,2013-04-22 12:37:00,
2013-04-22 08:38:00,47.9,35.5,30.40,SW,223,0.0,9.0,62,0.00,,,0.00,Wunderground v.1.15,2013-04-22 12:38:00,
2013-04-22 08:41:00,48.2,36.2,30.40,SW,223,0.0,9.0,63,0.00,,,0.00,Wunderground v.1.15,2013-04-22 12:41:00,
2013-04-22 08:43:00,48.5,36.9,30.40,SW,223,0.0,9.0,64,0.00,,,0.00,Wunderground v.1.15,2013-04-22 12:43:00,
2013-04-22 08:44:00,48.5,36.9,30.40,SW,223,0.0,9.0,64,0.00,,,0.00,Wunderground v.1.15,2013-04-22 12:44:00,
2013-04-22 08:45:00,48.7,36.7,30.40,SSE,159,0.0,9.0,63,0.00,,,0.00,Wunderground v.1.15,2013-04-22 12:45:00,
2013-04-22 08:46:00,48.8,36.4,30.40,South,170,0.0,9.0,62,0.00,,,0.00,Wunderground v.1.15,2013-04-22 12:46:00,
2013-04-22 08:50:00,49.4,36.9,30.40,SSW,196,0.0,9.0,62,0.00,,,0.00,Wunderground v.1.15,2013-04-22 12:50:00,
2013-04-22 08:52:00,49.6,37.1,30.40,SSW,196,0.0,9.0,62,0.00,,,0.00,Wunderground v.1.15,2013-04-22 12:52:00,
2013-04-22 08:54:00,49.8,37.3,30.40,SW,232,0.0,9.0,62,0.00,,,0.00,Wunderground v.1.15,2013-04-22 12:54:00,
2013-04-22 08:56:00,50.0,37.1,30.40,SSW,195,0.0,9.0,61,0.00,,,0.00,Wunderground v.1.15,2013-04-22 12:56:00,
2013-04-22 08:57:00,50.1,37.2,30.40,SSW,194,0.0,9.0,61,0.00,,,0.00,Wunderground v.1.15,2013-04-22 12:57:00,
2013-04-22 08:59:00,50.2,36.8,30.40,SSW,209,1.0,9.0,60,0.00,,,0.00,Wunderground v.1.15,2013-04-22 12:59:00,
2013-04-22 09:02:00,50.4,37.4,30.40,SSW,207,1.0,9.0,61,0.00,,,0.00,Wunderground v.1.15,2013-04-22 13:02:00,
2013-04-22 09:03:00,50.4,38.3,30.40,SSW,207,1.0,9.0,63,0.00,,,0.00,Wunderground v.1.15,2013-04-22 13:03:00,
2013-04-22 09:04:00,50.5,38.0,30.40,South,177,1.0,9.0,62,0.00,,,0.00,Wunderground v.1.15,2013-04-22 13:04:00,
2013-04-22 09:06:00,50.7,37.3,30.40,WSW,238,2.0,9.0,60,0.00,,,0.00,Wunderground v.1.15,2013-04-22 13:06:00,
2013-04-22 09:07:00,50.8,37.8,30.40,WSW,238,2.0,9.0,61,0.00,,,0.00,Wunderground v.1.15,2013-04-22 13:07:00,
2013-04-22 09:10:00,51.1,38.1,30.40,WSW,238,1.0,9.0,61,0.00,,,0.00,Wunderground v.1.15,2013-04-22 13:10:00,
2013-04-22 09:11:00,51.3,38.7,30.40,WSW,238,1.0,1.0,62,0.00,,,0.00,Wunderground v.1.15,2013-04-22 13:11:00,
2013-04-22 09:12:00,51.4,38.4,30.40,WSW,238,1.0,9.0,61,0.00,,,0.00,Wunderground v.1.15,2013-04-22 13:12:00,
2013-04-22 09:13:00,51.5,38.5,30.40,SSW,194,1.0,9.0,61,0.00,,,0.00,Wunderground v.1.15,2013-04-22 13:13:00,
2013-04-22 09:18:00,52.0,39.0,30.40,SW,223,1.0,9.0,61,0.00,,,0.00,Wunderground v.1.15,2013-04-22 13:18:00,
2013-04-22 09:20:00,52.1,39.1,30.40,SW,220,1.0,9.0,61,0.00,,,0.00,Wunderground v.1.15,2013-04-22 13:20:00,
2013-04-22 09:21:00,52.3,39.7,30.40,SSW,213,1.0,9.0,62,0.00,,,0.00,Wunderground v.1.15,2013-04-22 13:21:00,
2013-04-22 09:25:00,52.7,39.6,30.40,SSW,207,2.0,9.0,61,0.00,,,0.00,Wunderground v.1.15,2013-04-22 13:25:00,
2013-04-22 09:26:00,52.8,38.9,30.40,South,174,2.0,9.0,59,0.00,,,0.00,Wunderground v.1.15,2013-04-22 13:26:00,
2013-04-22 09:27:00,52.9,39.0,30.40,WSW,238,2.0,9.0,59,0.00,,,0.00,Wunderground v.1.15,2013-04-22 13:27:00,
2013-04-22 09:28:00,53.0,39.9,30.40,South,188,2.0,9.0,61,0.00,,,0.00,Wunderground v.1.15,2013-04-22 13:28:00,
2013-04-22 09:32:00,53.2,38.8,30.40,SSW,209,3.0,9.0,58,0.00,,,0.00,Wunderground v.1.15,2013-04-22 13:32:00,
2013-04-22 09:34:00,53.3,38.9,30.40,SW,218,3.0,9.0,58,0.00,,,0.00,Wunderground v.1.15,2013-04-22 13:34:00,
2013-04-22 09:35:00,53.4,39.4,30.40,SSW,192,3.0,9.0,59,0.00,,,0.00,Wunderground v.1.15,2013-04-22 13:35:00,
2013-04-22 09:36:00,53.5,39.9,30.40,WSW,253,3.0,9.0,60,0.00,,,0.00,Wunderground v.1.15,2013-04-22 13:36:00,
2013-04-22 09:41:00,54.1,40.9,30.40,WSW,242,2.0,2.0,61,0.00,,,0.00,Wunderground v.1.15,2013-04-22 13:41:00,
2013-04-22 09:42:00,54.2,39.7,30.40,SW,222,2.0,9.0,58,0.00,,,0.00,Wunderground v.1.15,2013-04-22 13:42:00,
2013-04-22 09:43:00,54.3,41.1,30.40,SSW,213,2.0,9.0,61,0.00,,,0.00,Wunderground v.1.15,2013-04-22 13:43:00,
2013-04-22 09:47:00,54.8,40.7,30.40,SSW,196,1.0,9.0,59,0.00,,,0.00,Wunderground v.1.15,2013-04-22 13:47:00,
2013-04-22 09:48:00,54.9,40.4,30.40,SSW,200,1.0,9.0,58,0.00,,,0.00,Wunderground v.1.15,2013-04-22 13:48:00,
2013-04-22 09:50:00,55.1,41.0,30.40,SW,221,2.0,9.0,59,0.00,,,0.00,Wunderground v.1.15,2013-04-22 13:50:00,
2013-04-22 09:51:00,55.1,39.7,30.40,South,191,2.0,9.0,56,0.00,,,0.00,Wunderground v.1.15,2013-04-22 13:51:00,
2013-04-22 09:54:00,55.2,41.1,30.40,SSW,205,3.0,9.0,59,0.00,,,0.00,Wunderground v.1.15,2013-04-22 13:54:00,
2013-04-22 09:57:00,55.4,40.4,30.40,WSW,240,3.0,9.0,57,0.00,,,0.00,Wunderground v.1.15,2013-04-22 13:57:00,
2013-04-22 09:59:00,55.6,41.9,30.40,SW,216,3.0,9.0,60,0.00,,,0.00,Wunderground v.1.15,2013-04-22 13:59:00,
2013-04-22 10:00:00,55.7,41.6,30.40,SW,229,3.0,9.0,59,0.00,,,0.00,Wunderground v.1.15,2013-04-22 14:00:00,
2013-04-22 10:03:00,55.8,40.8,30.40,SW,217,3.0,9.0,57,0.00,,,0.00,Wunderground v.1.15,2013-04-22 14:03:00,
2013-04-22 10:04:00,55.8,40.8,30.40,SW,217,3.0,9.0,57,0.00,,,0.00,Wunderground v.1.15,2013-04-22 14:04:00,
2013-04-22 10:07:00,56.0,40.5,30.40,SSW,207,3.0,9.0,56,0.00,,,0.00,Wunderground v.1.15,2013-04-22 14:07:00,
2013-04-22 10:08:00,56.0,41.0,30.40,SW,230,4.0,9.0,57,0.00,,,0.00,Wunderground v.1.15,2013-04-22 14:08:00,
2013-04-22 10:09:00,56.1,41.5,30.40,SW,217,4.0,9.0,58,0.00,,,0.00,Wunderground v.1.15,2013-04-22 14:09:00,
2013-04-22 10:10:00,56.1,41.5,30.40,SSW,213,4.0,9.0,58,0.00,,,0.00,Wunderground v.1.15,2013-04-22 14:10:00,
2013-04-22 10:15:00,56.4,40.4,30.40,SSW,197,4.0,9.0,55,0.00,,,0.00,Wunderground v.1.15,2013-04-22 14:15:00,
2013-04-22 10:16:00,56.4,40.4,30.40,SSW,209,4.0,9.0,55,0.00,,,0.00,Wunderground v.1.15,2013-04-22 14:16:00,
2013-04-22 10:17:00,56.4,40.9,30.40,SW,221,4.0,9.0,56,0.00,,,0.00,Wunderground v.1.15,2013-04-22 14:17:00,
2013-04-22 10:20:00,56.4,40.9,30.40,SW,227,4.0,9.0,56,0.00,,,0.00,Wunderground v.1.15,2013-04-22 14:20:00,
2013-04-22 10:21:00,56.5,41.0,30.40,SW,217,4.0,9.0,56,0.00,,,0.00,Wunderground v.1.15,2013-04-22 14:21:00,
2013-04-22 10:23:00,56.5,41.4,30.40,South,189,5.0,9.0,57,0.00,,,0.00,Wunderground v.1.15,2013-04-22 14:23:00,
2013-04-22 10:24:00,56.6,42.0,30.40,South,184,5.0,9.0,58,0.00,,,0.00,Wunderground v.1.15,2013-04-22 14:24:00,
2013-04-22 10:25:00,56.7,41.2,30.40,SSW,199,4.0,9.0,56,0.00,,,0.00,Wunderground v.1.15,2013-04-22 14:25:00,
2013-04-22 10:27:00,57.0,41.9,30.40,South,169,4.0,9.0,57,0.00,,,0.00,Wunderground v.1.15,2013-04-22 14:27:00,
2013-04-22 10:30:00,57.5,43.3,30.40,SW,227,4.0,9.0,59,0.00,,,0.00,Wunderground v.1.15,2013-04-22 14:30:00,
2013-04-22 10:31:00,57.7,43.9,30.40,WSW,244,3.0,3.0,60,0.00,,,0.00,Wunderground v.1.15,2013-04-22 14:31:00,
2013-04-22 10:33:00,58.1,42.0,30.40,SSW,202,2.0,7.0,55,0.00,,,0.00,Wunderground v.1.15,2013-04-22 14:33:00,
2013-04-22 10:34:00,58.1,41.0,30.40,SSW,203,3.0,9.0,53,0.00,,,0.00,Wunderground v.1.15,2013-04-22 14:34:00,
2013-04-22 10:37:00,58.2,41.6,30.40,WNW,302,3.0,9.0,54,0.00,,,0.00,Wunderground v.1.15,2013-04-22 14:37:00,
2013-04-22 10:39:00,58.3,42.2,30.40,SW,235,3.0,9.0,55,0.00,,,0.00,Wunderground v.1.15,2013-04-22 14:39:00,
2013-04-22 10:41:00,58.4,41.8,30.40,WSW,242,4.0,4.0,54,0.00,,,0.00,Wunderground v.1.15,2013-04-22 14:41:00,
2013-04-22 10:42:00,58.4,42.8,30.40,West,281,4.0,9.0,56,0.00,,,0.00,Wunderground v.1.15,2013-04-22 14:42:00,
2013-04-22 10:46:00,58.3,41.7,30.40,WSW,240,5.0,9.0,54,0.00,,,0.00,Wunderground v.1.15,2013-04-22 14:46:00,
2013-04-22 10:47:00,58.2,41.6,30.40,SW,227,5.0,9.0,54,0.00,,,0.00,Wunderground v.1.15,2013-04-22 14:47:00,
2013-04-22 10:48:00,58.1,41.5,30.40,WSW,254,5.0,10.0,54,0.00,,,0.00,Wunderground v.1.15,2013-04-22 14:48:00,
2013-04-22 10:49:00,58.1,41.5,30.40,SW,217,5.0,10.0,54,0.00,,,0.00,Wunderground v.1.15,2013-04-22 14:49:00,
2013-04-22 10:51:00,58.1,41.5,30.40,SW,216,5.0,5.0,54,0.00,,,0.00,Wunderground v.1.15,2013-04-22 14:51:00,
2013-04-22 10:52:00,58.2,43.0,30.40,SW,219,5.0,10.0,57,0.00,,,0.00,Wunderground v.1.15,2013-04-22 14:52:00,
2013-04-22 10:54:00,58.2,42.6,30.40,SW,215,5.0,10.0,56,0.00,,,0.00,Wunderground v.1.15,2013-04-22 14:54:00,
2013-04-22 10:57:00,58.6,42.5,30.40,West,275,5.0,10.0,55,0.00,,,0.00,Wunderground v.1.15,2013-04-22 14:57:00,
2013-04-22 10:59:00,58.8,42.2,30.40,WSW,242,5.0,10.0,54,0.00,,,0.00,Wunderground v.1.15,2013-04-22 14:59:00,
2013-04-22 11:01:00,58.8,41.7,30.40,SW,217,4.0,9.0,53,0.00,,,0.00,Wunderground v.1.15,2013-04-22 15:01:00,
2013-04-22 11:05:00,59.1,42.0,30.40,West,271,4.0,9.0,53,0.00,,,0.00,Wunderground v.1.15,2013-04-22 15:05:00,
2013-04-22 11:06:00,59.3,43.1,30.40,West,279,4.0,9.0,55,0.00,,,0.00,Wunderground v.1.15,2013-04-22 15:06:00,
2013-04-22 11:07:00,59.5,43.3,30.40,South,172,4.0,9.0,55,0.00,,,0.00,Wunderground v.1.15,2013-04-22 15:07:00,
2013-04-22 11:08:00,59.6,41.9,30.40,West,267,3.0,9.0,52,0.00,,,0.00,Wunderground v.1.15,2013-04-22 15:08:00,
2013-04-22 11:10:00,59.7,43.0,30.40,WNW,303,3.0,9.0,54,0.00,,,0.00,Wunderground v.1.15,2013-04-22 15:10:00,
2013-04-22 11:11:00,59.9,43.2,30.40,SW,226,3.0,3.0,54,0.00,,,0.00,Wunderground v.1.15,2013-04-22 15:11:00,
2013-04-22 11:12:00,60.1,43.4,30.40,SW,233,3.0,6.0,54,0.00,,,0.00,Wunderground v.1.15,2013-04-22 15:12:00,
2013-04-22 11:13:00,60.1,42.9,30.40,SSW,202,3.0,9.0,53,0.00,,,0.00,Wunderground v.1.15,2013-04-22 15:13:00,
2013-04-22 11:14:00,60.2,43.0,30.40,SSW,200,4.0,9.0,53,0.00,,,0.00,Wunderground v.1.15,2013-04-22 15:14:00,
2013-04-22 11:18:00,60.2,43.5,30.40,West,267,4.0,9.0,54,0.00,,,0.00,Wunderground v.1.15,2013-04-22 15:18:00,
2013-04-22 11:19:00,60.1,42.4,30.40,SW,236,5.0,9.0,52,0.00,,,0.00,Wunderground v.1.15,2013-04-22 15:19:00,
2013-04-22 11:20:00,60.1,42.4,30.39,WSW,251,5.0,9.0,52,0.00,,,0.00,Wunderground v.1.15,2013-04-22 15:20:00,
2013-04-22 11:22:00,60.1,42.9,30.39,SW,221,5.0,9.0,53,0.00,,,0.00,Wunderground v.1.15,2013-04-22 15:22:00,
2013-04-22 11:25:00,60.3,43.1,30.39,WNW,295,5.0,9.0,53,0.00,,,0.00,Wunderground v.1.15,2013-04-22 15:25:00,
2013-04-22 11:26:00,60.5,43.8,30.40,SSW,196,5.0,9.0,54,0.00,,,0.00,Wunderground v.1.15,2013-04-22 15:26:00,
2013-04-22 11:30:00,60.9,44.1,30.39,WSW,238,4.0,9.0,54,0.00,,,0.00,Wunderground v.1.15,2013-04-22 15:30:00,
2013-04-22 11:32:00,61.1,43.8,30.39,WNW,302,4.0,9.0,53,0.00,,,0.00,Wunderground v.1.15,2013-04-22 15:32:00,
2013-04-22 11:33:00,61.3,44.0,30.39,SW,226,3.0,9.0,53,0.00,,,0.00,Wunderground v.1.15,2013-04-22 15:33:00,
2013-04-22 11:34:00,61.3,44.0,30.39,SW,221,3.0,9.0,53,0.00,,,0.00,Wunderground v.1.15,2013-04-22 15:34:00,
2013-04-22 11:36:00,61.2,43.4,30.39,South,183,4.0,9.0,52,0.00,,,0.00,Wunderground v.1.15,2013-04-22 15:36:00,
2013-04-22 11:40:00,61.3,43.5,30.39,WSW,254,4.0,9.0,52,0.00,,,0.00,Wunderground v.1.15,2013-04-22 15:40:00,
2013-04-22 11:42:00,61.4,44.6,30.39,NW,318,4.0,9.0,54,0.00,,,0.00,Wunderground v.1.15,2013-04-22 15:42:00,
2013-04-22 11:43:00,61.5,43.7,30.39,WNW,286,4.0,9.0,52,0.00,,,0.00,Wunderground v.1.15,2013-04-22 15:43:00,
2013-04-22 11:46:00,61.9,43.6,30.39,WNW,285,3.0,9.0,51,0.00,,,0.00,Wunderground v.1.15,2013-04-22 15:46:00,
2013-04-22 11:49:00,62.2,43.3,30.38,West,266,3.0,9.0,50,0.00,,,0.00,Wunderground v.1.15,2013-04-22 15:49:00,
2013-04-22 11:50:00,62.2,43.8,30.38,SSW,208,3.0,9.0,51,0.00,,,0.00,Wunderground v.1.15,2013-04-22 15:50:00,
2013-04-22 11:52:00,62.2,44.9,30.38,WSW,253,3.0,9.0,53,0.00,,,0.00,Wunderground v.1.15,2013-04-22 15:52:00,
2013-04-22 11:53:00,62.3,44.4,30.38,WSW,240,3.0,9.0,52,0.00,,,0.00,Wunderground v.1.15,2013-04-22 15:53:00,
2013-04-22 11:56:00,62.4,44.0,30.38,SW,227,3.0,9.0,51,0.00,,,0.00,Wunderground v.1.15,2013-04-22 15:56:00,
2013-04-22 11:58:00,62.7,44.3,30.38,WSW,258,3.0,9.0,51,0.00,,,0.00,Wunderground v.1.15,2013-04-22 15:58:00,
2013-04-22 12:01:00,62.8,43.9,30.38,WSW,257,2.0,2.0,50,0.00,,,0.00,Wunderground v.1.15,2013-04-22 16:01:00,
2013-04-22 12:02:00,63.2,46.3,30.38,WNW,302,2.0,9.0,54,0.00,,,0.00,Wunderground v.1.15,2013-04-22 16:02:00,
2013-04-22 12:06:00,63.4,44.4,30.38,NW,307,1.0,9.0,50,0.00,,,0.00,Wunderground v.1.15,2013-04-22 16:06:00,
2013-04-22 12:07:00,63.5,44.5,30.38,West,277,2.0,9.0,50,0.00,,,0.00,Wunderground v.1.15,2013-04-22 16:07:00,
2013-04-22 12:09:00,63.5,43.4,30.38,WNW,301,2.0,9.0,48,0.00,,,0.00,Wunderground v.1.15,2013-04-22 16:09:00,
2013-04-22 12:10:00,63.5,44.5,30.38,WNW,302,1.0,9.0,50,0.00,,,0.00,Wunderground v.1.15,2013-04-22 16:10:00,
2013-04-22 12:11:00,63.6,44.6,30.38,West,273,1.0,9.0,50,0.00,,,0.00,Wunderground v.1.15,2013-04-22 16:11:00,
2013-04-22 12:14:00,63.9,44.4,30.38,West,262,2.0,9.0,49,0.00,,,0.00,Wunderground v.1.15,2013-04-22 16:14:00,
2013-04-22 12:17:00,64.1,46.6,30.38,SW,231,1.0,9.0,53,0.00,,,0.00,Wunderground v.1.15,2013-04-22 16:17:00,
2013-04-22 12:18:00,64.1,43.4,30.38,West,280,1.0,9.0,47,0.00,,,0.00,Wunderground v.1.15,2013-04-22 16:18:00,
2013-04-22 12:19:00,64.1,44.5,30.38,West,280,1.0,9.0,49,0.00,,,0.00,Wunderground v.1.15,2013-04-22 16:19:00,
2013-04-22 12:20:00,64.0,43.9,30.38,West,263,2.0,9.0,48,0.00,,,0.00,Wunderground v.1.15,2013-04-22 16:20:00,
2013-04-22 12:22:00,63.8,43.7,30.38,SW,236,2.0,9.0,48,0.00,,,0.00,Wunderground v.1.15,2013-04-22 16:22:00,
2013-04-22 12:23:00,63.6,44.6,30.38,NW,318,2.0,9.0,50,0.00,,,0.00,Wunderground v.1.15,2013-04-22 16:23:00,
2013-04-22 12:25:00,63.8,45.3,30.38,NW,306,2.0,9.0,51,0.00,,,0.00,Wunderground v.1.15,2013-04-22 16:25:00,
2013-04-22 12:27:00,63.9,44.4,30.38,WSW,244,3.0,9.0,49,0.00,,,0.00,Wunderground v.1.15,2013-04-22 16:27:00,
2013-04-22 12:29:00,63.5,43.4,30.37,WSW,243,3.0,9.0,48,0.00,,,0.00,Wunderground v.1.15,2013-04-22 16:29:00,
2013-04-22 12:30:00,63.5,42.9,30.37,WSW,257,2.0,9.0,47,0.00,,,0.00,Wunderground v.1.15,2013-04-22 16:30:00,
2013-04-22 12:31:00,63.5,45.0,30.37,WNW,292,2.0,2.0,51,0.00,,,0.00,Wunderground v.1.15,2013-04-22 16:31:00,
2013-04-22 12:33:00,64.0,45.5,30.37,West,273,2.0,9.0,51,0.00,,,0.00,Wunderground v.1.15,2013-04-22 16:33:00,
2013-04-22 12:37:00,64.5,44.4,30.37,WSW,251,2.0,9.0,48,0.00,,,0.00,Wunderground v.1.15,2013-04-22 16:37:00,
2013-04-22 12:38:00,64.6,45.0,30.37,WNW,295,2.0,9.0,49,0.00,,,0.00,Wunderground v.1.15,2013-04-22 16:38:00,
2013-04-22 12:39:00,64.7,43.4,30.37,WSW,238,2.0,9.0,46,0.00,,,0.00,Wunderground v.1.15,2013-04-22 16:39:00,
2013-04-22 12:43:00,64.5,43.8,30.37,West,277,3.0,9.0,47,0.00,,,0.00,Wunderground v.1.15,2013-04-22 16:43:00,
2013-04-22 12:46:00,64.6,45.0,30.37,NW,309,3.0,9.0,49,0.00,,,0.00,Wunderground v.1.15,2013-04-22 16:46:00,
2013-04-22 12:47:00,64.6,44.5,30.36,NNW,329,3.0,9.0,48,0.00,,,0.00,Wunderground v.1.15,2013-04-22 16:47:00,
2013-04-22 12:48:00,64.7,44.0,30.36,NNW,342,3.0,9.0,47,0.00,,,0.00,Wunderground v.1.15,2013-04-22 16:48:00,
2013-04-22 12:49:00,64.6,44.5,30.36,NW,305,2.0,9.0,48,0.00,,,0.00,Wunderground v.1.15,2013-04-22 16:49:00,
2013-04-22 12:51:00,64.9,47.9,30.36,North,11,2.0,2.0,54,0.00,,,0.00,Wunderground v.1.15,2013-04-22 16:51:00,
2013-04-22 12:56:00,65.4,44.1,30.36,NNW,337,1.0,9.0,46,0.00,,,0.00,Wunderground v.1.15,2013-04-22 16:56:00,
2013-04-22 12:57:00,65.4,43.5,30.36,SW,228,1.0,9.0,45,0.00,,,0.00,Wunderground v.1.15,2013-04-22 16:57:00,
2013-04-22 13:01:00,64.9,43.0,30.36,North,355,2.0,2.0,45,0.00,,,0.00,Wunderground v.1.15,2013-04-22 17:01:00,
2013-04-22 13:03:00,65.0,43.7,30.36,SW,223,2.0,5.0,46,0.00,,,0.00,Wunderground v.1.15,2013-04-22 17:03:00,
2013-04-22 13:05:00,65.3,46.2,30.36,WNW,296,2.0,9.0,50,0.00,,,0.00,Wunderground v.1.15,2013-04-22 17:05:00,
2013-04-22 13:08:00,65.2,42.7,30.35,NW,313,2.0,9.0,44,0.00,,,0.00,Wunderground v.1.15,2013-04-22 17:08:00,
2013-04-22 13:09:00,65.2,44.5,30.35,NW,317,2.0,9.0,47,0.00,,,0.00,Wunderground v.1.15,2013-04-22 17:09:00,
2013-04-22 13:10:00,65.3,43.4,30.35,NW,322,2.0,9.0,45,0.00,,,0.00,Wunderground v.1.15,2013-04-22 17:10:00,
2013-04-22 13:11:00,65.3,42.8,30.35,West,278,2.0,2.0,44,0.00,,,0.00,Wunderground v.1.15,2013-04-22 17:11:00,
2013-04-22 13:13:00,65.6,42.5,30.35,NW,317,2.0,9.0,43,0.00,,,0.00,Wunderground v.1.15,2013-04-22 17:13:00,
2013-04-22 13:15:00,65.9,43.4,30.35,SW,220,1.0,9.0,44,0.00,,,0.00,Wunderground v.1.15,2013-04-22 17:15:00,
2013-04-22 13:17:00,65.9,42.1,30.35,SSW,198,0.0,9.0,42,0.00,,,0.00,Wunderground v.1.15,2013-04-22 17:17:00,
2013-04-22 13:18:00,65.8,42.7,30.35,East,86,0.0,9.0,43,0.00,,,0.00,Wunderground v.1.15,2013-04-22 17:18:00,
2013-04-22 13:23:00,65.6,43.7,30.35,WSW,258,1.0,9.0,45,0.00,,,0.00,Wunderground v.1.15,2013-04-22 17:23:00,
2013-04-22 13:24:00,65.5,44.7,30.35,WSW,250,1.0,9.0,47,0.00,,,0.00,Wunderground v.1.15,2013-04-22 17:24:00,
2013-04-22 13:26:00,65.3,44.0,30.35,NNW,338,1.0,9.0,46,0.00,,,0.00,Wunderground v.1.15,2013-04-22 17:26:00,
2013-04-22 13:29:00,65.0,41.9,30.35,WNW,295,2.0,9.0,43,0.00,,,0.00,Wunderground v.1.15,2013-04-22 17:29:00,
2013-04-22 13:34:00,64.7,42.3,30.34,North,350,1.0,9.0,44,0.00,,,0.00,Wunderground v.1.15,2013-04-22 17:34:00,
2013-04-22 13:35:00,64.8,42.4,30.34,East,91,1.0,9.0,44,0.00,,,0.00,Wunderground v.1.15,2013-04-22 17:35:00,
2013-04-22 13:36:00,65.0,43.1,30.34,NW,319,1.0,9.0,45,0.00,,,0.00,Wunderground v.1.15,2013-04-22 17:36:00,
2013-04-22 13:38:00,65.4,43.5,30.34,WSW,244,1.0,9.0,45,0.00,,,0.00,Wunderground v.1.15,2013-04-22 17:38:00,
2013-04-22 13:40:00,65.7,43.2,30.34,NW,306,1.0,9.0,44,0.00,,,0.00,Wunderground v.1.15,2013-04-22 17:40:00,
2013-04-22 13:41:00,65.7,42.6,30.34,WSW,241,1.0,1.0,43,0.00,,,0.00,Wunderground v.1.15,2013-04-22 17:41:00,
2013-04-22 13:44:00,66.1,45.8,30.34,WSW,246,2.0,9.0,48,0.00,,,0.00,Wunderground v.1.15,2013-04-22 17:44:00,
2013-04-22 13:45:00,66.0,44.0,30.34,WSW,241,2.0,9.0,45,0.00,,,0.00,Wunderground v.1.15,2013-04-22 17:45:00,
2013-04-22 13:46:00,66.0,43.5,30.34,SSW,208,2.0,9.0,44,0.00,,,0.00,Wunderground v.1.15,2013-04-22 17:46:00,
2013-04-22 13:47:00,65.9,42.8,30.33,SW,221,3.0,9.0,43,0.00,,,0.00,Wunderground v.1.15,2013-04-22 17:47:00,
2013-04-22 13:49:00,65.7,42.6,30.33,WSW,252,2.0,9.0,43,0.00,,,0.00,Wunderground v.1.15,2013-04-22 17:49:00,
2013-04-22 13:51:00,66.0,42.2,30.33,SE,142,2.0,2.0,42,0.00,,,0.00,Wunderground v.1.15,2013-04-22 17:51:00,
2013-04-22 13:52:00,66.2,44.2,30.33,East,101,2.0,9.0,45,0.00,,,0.00,Wunderground v.1.15,2013-04-22 17:52:00,
2013-04-22 13:53:00,66.3,42.5,30.33,SW,233,2.0,9.0,42,0.00,,,0.00,Wunderground v.1.15,2013-04-22 17:53:00,
2013-04-22 13:55:00,66.5,42.7,30.33,WNW,298,1.0,9.0,42,0.00,,,0.00,Wunderground v.1.15,2013-04-22 17:55:00,
2013-04-22 13:58:00,66.8,43.6,30.33,South,184,0.0,9.0,43,0.00,,,0.00,Wunderground v.1.15,2013-04-22 17:58:00,
2013-04-22 14:00:00,67.0,43.8,30.33,East,95,0.0,9.0,43,0.00,,,0.00,Wunderground v.1.15,2013-04-22 18:00:00,
2013-04-22 14:02:00,67.3,43.4,30.32,East,92,0.0,9.0,42,0.00,,,0.00,Wunderground v.1.15,2013-04-22 18:02:00,
2013-04-22 14:03:00,67.6,45.5,30.32,NE,40,0.0,9.0,45,0.00,,,0.00,Wunderground v.1.15,2013-04-22 18:03:00,
2013-04-22 14:05:00,67.9,43.3,30.32,SE,140,0.0,9.0,41,0.00,,,0.00,Wunderground v.1.15,2013-04-22 18:05:00,
2013-04-22 14:07:00,68.1,43.5,30.32,NE,39,0.0,9.0,41,0.00,,,0.00,Wunderground v.1.15,2013-04-22 18:07:00,
2013-04-22 14:10:00,69.0,46.8,30.32,NE,47,0.0,9.0,45,0.00,,,0.00,Wunderground v.1.15,2013-04-22 18:10:00,
2013-04-22 14:12:00,69.7,44.9,30.32,NNE,23,0.0,9.0,41,0.00,,,0.00,Wunderground v.1.15,2013-04-22 18:12:00,
2013-04-22 14:13:00,70.1,46.6,30.32,SSE,161,0.0,9.0,43,0.00,,,0.00,Wunderground v.1.15,2013-04-22 18:13:00,
2013-04-22 14:14:00,70.3,46.7,30.32,SSE,155,0.0,9.0,43,0.00,,,0.00,Wunderground v.1.15,2013-04-22 18:14:00,
2013-04-22 14:15:00,70.4,43.6,30.32,SSW,192,0.0,9.0,38,0.00,,,0.00,Wunderground v.1.15,2013-04-22 18:15:00,
2013-04-22 14:16:00,70.3,44.2,30.32,South,182,0.0,9.0,39,0.00,,,0.00,Wunderground v.1.15,2013-04-22 18:16:00,
2013-04-22 14:18:00,70.2,43.4,30.32,ENE,76,0.0,9.0,38,0.00,,,0.00,Wunderground v.1.15,2013-04-22 18:18:00,
2013-04-22 14:19:00,70.1,43.3,30.32,ESE,103,1.0,9.0,38,0.00,,,0.00,Wunderground v.1.15,2013-04-22 18:19:00,
2013-04-22 14:21:00,69.5,44.1,30.32,SSE,163,1.0,1.0,40,0.00,,,0.00,Wunderground v.1.15,2013-04-22 18:21:00,
2013-04-22 14:25:00,67.8,41.9,30.32,SW,234,2.0,9.0,39,0.00,,,0.00,Wunderground v.1.15,2013-04-22 18:25:00,
2013-04-22 14:26:00,67.4,42.2,30.32,SSW,202,2.0,9.0,40,0.00,,,0.00,Wunderground v.1.15,2013-04-22 18:26:00,
2013-04-22 14:28:00,67.0,41.2,30.32,WSW,239,1.0,9.0,39,0.00,,,0.00,Wunderground v.1.15,2013-04-22 18:28:00,
2013-04-22 14:29:00,66.8,42.3,30.32,WNW,290,1.0,9.0,41,0.00,,,0.00,Wunderground v.1.15,2013-04-22 18:29:00,
2013-04-22 14:33:00,66.2,41.2,30.31,SW,227,1.0,9.0,40,0.00,,,0.00,Wunderground v.1.15,2013-04-22 18:33:00,
2013-04-22 14:34:00,66.2,41.8,30.31,SW,227,1.0,9.0,41,0.00,,,0.00,Wunderground v.1.15,2013-04-22 18:34:00,
2013-04-22 14:35:00,66.2,41.8,30.31,WSW,242,1.0,9.0,41,0.00,,,0.00,Wunderground v.1.15,2013-04-22 18:35:00,
2013-04-22 14:40:00,66.3,43.1,30.31,WNW,286,1.0,9.0,43,0.00,,,0.00,Wunderground v.1.15,2013-04-22 18:40:00,
2013-04-22 14:41:00,66.5,43.9,30.31,NW,323,1.0,1.0,44,0.00,,,0.00,Wunderground v.1.15,2013-04-22 18:41:00,
2013-04-22 14:42:00,66.7,42.9,30.31,NNW,329,1.0,9.0,42,0.00,,,0.00,Wunderground v.1.15,2013-04-22 18:42:00,
2013-04-22 14:45:00,67.2,43.3,30.31,NW,304,1.0,9.0,42,0.00,,,0.00,Wunderground v.1.15,2013-04-22 18:45:00,
2013-04-22 14:46:00,67.4,43.5,30.31,NW,315,1.0,9.0,42,0.00,,,0.00,Wunderground v.1.15,2013-04-22 18:46:00,
2013-04-22 14:47:00,67.5,45.4,30.31,NNW,345,1.0,9.0,45,0.00,,,0.00,Wunderground v.1.15,2013-04-22 18:47:00,
2013-04-22 14:48:00,67.5,44.2,30.31,NNW,328,1.0,9.0,43,0.00,,,0.00,Wunderground v.1.15,2013-04-22 18:48:00,
2013-04-22 14:51:00,67.8,43.2,30.31,North,5,1.0,9.0,41,0.00,,,0.00,Wunderground v.1.15,2013-04-22 18:51:00,
2013-04-22 14:52:00,67.9,42.0,30.31,NNW,348,1.0,9.0,39,0.00,,,0.00,Wunderground v.1.15,2013-04-22 18:52:00,
2013-04-22 14:53:00,68.0,42.8,30.30,North,360,1.0,9.0,40,0.00,,,0.00,Wunderground v.1.15,2013-04-22 18:53:00,
2013-04-22 14:54:00,68.1,42.9,30.30,West,269,1.0,9.0,40,0.00,,,0.00,Wunderground v.1.15,2013-04-22 18:54:00,
2013-04-22 14:58:00,67.7,41.2,30.30,WSW,239,1.0,9.0,38,0.00,,,0.00,Wunderground v.1.15,2013-04-22 18:58:00,
2013-04-22 15:00:00,67.0,41.2,30.30,WSW,245,1.0,1.0,39,0.00,,,0.00,Wunderground v.1.15,2013-04-22 19:00:00,
2013-04-22 15:02:00,66.5,40.8,30.30,WSW,245,1.0,9.0,39,0.00,,,0.00,Wunderground v.1.15,2013-04-22 19:02:00,
2013-04-22 15:04:00,66.2,41.2,30.30,WSW,240,1.0,9.0,40,0.00,,,0.00,Wunderground v.1.15,2013-04-22 19:04:00,
2013-04-22 15:05:00,66.1,41.1,30.30,WSW,240,1.0,9.0,40,0.00,,,0.00,Wunderground v.1.15,2013-04-22 19:05:00,
2013-04-22 15:06:00,66.0,44.0,30.30,West,275,1.0,9.0,45,0.00,,,0.00,Wunderground v.1.15,2013-04-22 19:06:00,
2013-04-22 15:10:00,66.0,41.0,30.30,WNW,302,0.0,9.0,40,0.00,,,0.00,Wunderground v.1.15,2013-04-22 19:10:00,
2013-04-22 15:11:00,66.1,41.1,30.30,South,172,0.0,9.0,40,0.00,,,0.00,Wunderground v.1.15,2013-04-22 19:11:00,
2013-04-22 15:15:00,66.8,42.3,30.29,East,98,0.0,9.0,41,0.00,,,0.00,Wunderground v.1.15,2013-04-22 19:15:00,
2013-04-22 15:16:00,67.2,42.7,30.29,NNW,333,0.0,9.0,41,0.00,,,0.00,Wunderground v.1.15,2013-04-22 19:16:00,
2013-04-22 15:20:00,67.7,41.2,30.29,NE,51,0.0,9.0,38,0.00,,,0.00,Wunderground v.1.15,2013-04-22 19:20:00,
2013-04-22 15:21:00,67.7,41.2,30.29,NNW,338,0.0,9.0,38,0.00,,,0.00,Wunderground v.1.15,2013-04-22 19:21:00,
2013-04-22 15:22:00,67.7,43.1,30.29,NNW,333,0.0,9.0,41,0.00,,,0.00,Wunderground v.1.15,2013-04-22 19:22:00,
2013-04-22 15:23:00,67.6,41.1,30.29,NNW,330,0.0,9.0,38,0.00,,,0.00,Wunderground v.1.15,2013-04-22 19:23:00,
2013-04-22 15:27:00,67.1,43.2,30.29,NNW,330,0.0,9.0,42,0.00,,,0.00,Wunderground v.1.15,2013-04-22 19:27:00,
2013-04-22 15:28:00,67.1,42.6,30.29,NNW,330,0.0,9.0,41,0.00,,,0.00,Wunderground v.1.15,2013-04-22 19:28:00,
2013-04-22 15:30:00,67.0,41.9,30.29,NNW,330,0.0,9.0,40,0.00,,,0.00,Wunderground v.1.15,2013-04-22 19:30:00,
2013-04-22 15:32:00,67.0,42.5,30.29,North,351,0.0,9.0,41,0.00,,,0.00,Wunderground v.1.15,2013-04-22 19:32:00,
2013-04-22 15:33:00,66.9,43.7,30.28,North,351,0.0,9.0,43,0.00,,,0.00,Wunderground v.1.15,2013-04-22 19:33:00,
2013-04-22 15:34:00,66.8,44.2,30.29,North,351,0.0,9.0,44,0.00,,,0.00,Wunderground v.1.15,2013-04-22 19:34:00,
2013-04-22 15:36:00,66.7,43.5,30.28,North,351,0.0,9.0,43,0.00,,,0.00,Wunderground v.1.15,2013-04-22 19:36:00,
2013-04-22 15:38:00,66.6,44.6,30.28,NNW,340,0.0,9.0,45,0.00,,,0.00,Wunderground v.1.15,2013-04-22 19:38:00,
2013-04-22 15:39:00,66.5,41.4,30.28,North,5,0.0,9.0,40,0.00,,,0.00,Wunderground v.1.15,2013-04-22 19:39:00,
2013-04-22 15:40:00,66.5,42.1,30.28,NW,316,0.0,9.0,41,0.00,,,0.00,Wunderground v.1.15,2013-04-22 19:40:00,
2013-04-22 15:44:00,66.6,43.4,30.28,NNW,332,0.0,9.0,43,0.00,,,0.00,Wunderground v.1.15,2013-04-22 19:44:00,
2013-04-22 15:45:00,66.5,43.9,30.28,North,360,0.0,9.0,44,0.00,,,0.00,Wunderground v.1.15,2013-04-22 19:45:00,
2013-04-22 15:46:00,66.5,42.1,30.28,NNW,338,0.0,9.0,41,0.00,,,0.00,Wunderground v.1.15,2013-04-22 19:46:00,
2013-04-22 15:47:00,66.4,42.0,30.28,NNW,338,0.0,9.0,41,0.00,,,0.00,Wunderground v.1.15,2013-04-22 19:47:00,
2013-04-22 15:50:00,66.3,41.9,30.28,NE,47,0.0,9.0,41,0.00,,,0.00,Wunderground v.1.15,2013-04-22 19:50:00,
2013-04-22 15:52:00,66.3,42.5,30.28,NE,51,0.0,9.0,42,0.00,,,0.00,Wunderground v.1.15,2013-04-22 19:52:00,
2013-04-22 15:53:00,66.3,41.2,30.28,NE,52,0.0,9.0,40,0.00,,,0.00,Wunderground v.1.15,2013-04-22 19:53:00,
2013-04-22 15:55:00,66.4,40.7,30.28,ENE,65,0.0,9.0,39,0.00,,,0.00,Wunderground v.1.15,2013-04-22 19:55:00,
2013-04-22 15:56:00,66.5,42.1,30.27,ENE,66,0.0,9.0,41,0.00,,,0.00,Wunderground v.1.15,2013-04-22 19:56:00,
2013-04-22 15:57:00,66.6,40.9,30.27,ENE,66,0.0,9.0,39,0.00,,,0.00,Wunderground v.1.15,2013-04-22 19:57:00,
2013-04-22 16:01:00,67.3,45.2,30.27,ENE,78,0.0,9.0,45,0.00,,,0.00,Wunderground v.1.15,2013-04-22 20:01:00,
2013-04-22 16:02:00,68.0,45.9,30.27,ENE,78,0.0,9.0,45,0.00,,,0.00,Wunderground v.1.15,2013-04-22 20:02:00,
2013-04-22 16:03:00,68.5,44.5,30.27,ENE,72,0.0,9.0,42,0.00,,,0.00,Wunderground v.1.15,2013-04-22 20:03:00,
2013-04-22 16:04:00,68.7,44.7,30.27,NNE,33,0.0,9.0,42,0.00,,,0.00,Wunderground v.1.15,2013-04-22 20:04:00,
2013-04-22 16:07:00,69.5,43.4,30.27,ENE,77,0.0,9.0,39,0.00,,,0.00,Wunderground v.1.15,2013-04-22 20:07:00,
2013-04-22 16:09:00,69.7,42.3,30.27,NE,50,0.0,9.0,37,0.00,,,0.00,Wunderground v.1.15,2013-04-22 20:09:00,
2013-04-22 16:10:00,69.7,42.3,30.27,East,88,1.0,9.0,37,0.00,,,0.00,Wunderground v.1.15,2013-04-22 20:10:00,
2013-04-22 16:11:00,69.7,44.3,30.27,East,88,1.0,9.0,40,0.00,,,0.00,Wunderground v.1.15,2013-04-22 20:11:00,
2013-04-22 16:13:00,69.8,42.3,30.26,North,5,1.0,9.0,37,0.00,,,0.00,Wunderground v.1.15,2013-04-22 20:13:00,
2013-04-22 16:16:00,69.7,41.5,30.26,ENE,78,1.0,9.0,36,0.00,,,0.00,Wunderground v.1.15,2013-04-22 20:16:00,
2013-04-22 16:17:00,69.6,40.7,30.26,East,86,1.0,9.0,35,0.00,,,0.00,Wunderground v.1.15,2013-04-22 20:17:00,
2013-04-22 16:18:00,69.5,42.1,30.26,ENE,68,1.0,9.0,37,0.00,,,0.00,Wunderground v.1.15,2013-04-22 20:18:00,
2013-04-22 16:22:00,69.4,43.4,30.26,ESE,110,1.0,9.0,39,0.00,,,0.00,Wunderground v.1.15,2013-04-22 20:22:00,
2013-04-22 16:23:00,69.3,42.6,30.26,ESE,110,1.0,9.0,38,0.00,,,0.00,Wunderground v.1.15,2013-04-22 20:23:00,
2013-04-22 16:24:00,69.3,43.9,30.26,ESE,110,0.0,9.0,40,0.00,,,0.00,Wunderground v.1.15,2013-04-22 20:24:00,
2013-04-22 16:26:00,69.3,43.9,30.26,ESE,109,0.0,9.0,40,0.00,,,0.00,Wunderground v.1.15,2013-04-22 20:26:00,
2013-04-22 16:28:00,69.4,44.0,30.26,ESE,109,0.0,9.0,40,0.00,,,0.00,Wunderground v.1.15,2013-04-22 20:28:00,
2013-04-22 16:29:00,69.4,43.4,30.26,ESE,108,0.0,9.0,39,0.00,,,0.00,Wunderground v.1.15,2013-04-22 20:29:00,
2013-04-22 16:34:00,69.2,41.1,30.25,SW,214,0.0,9.0,36,0.00,,,0.00,Wunderground v.1.15,2013-04-22 20:34:00,
2013-04-22 16:35:00,69.1,41.7,30.25,ENE,75,0.0,9.0,37,0.00,,,0.00,Wunderground v.1.15,2013-04-22 20:35:00,
2013-04-22 16:36:00,69.1,42.4,30.25,ESE,114,0.0,9.0,38,0.00,,,0.00,Wunderground v.1.15,2013-04-22 20:36:00,
2013-04-22 16:37:00,69.1,41.7,30.25,ESE,107,0.0,9.0,37,0.00,,,0.00,Wunderground v.1.15,2013-04-22 20:37:00,
2013-04-22 16:42:00,69.7,42.9,30.25,ENE,61,1.0,9.0,38,0.00,,,0.00,Wunderground v.1.15,2013-04-22 20:42:00,
2013-04-22 16:43:00,69.9,43.1,30.25,ENE,60,0.0,9.0,38,0.00,,,0.00,Wunderground v.1.15,2013-04-22 20:43:00,
2013-04-22 16:46:00,70.5,43.7,30.25,South,172,0.0,9.0,38,0.00,,,0.00,Wunderground v.1.15,2013-04-22 20:46:00,
2013-04-22 16:47:00,70.6,43.7,30.25,SSW,204,0.0,9.0,38,0.00,,,0.00,Wunderground v.1.15,2013-04-22 20:47:00,
2013-04-22 16:49:00,70.6,43.1,30.25,SSE,149,0.0,9.0,37,0.00,,,0.00,Wunderground v.1.15,2013-04-22 20:49:00,
2013-04-22 16:50:00,70.6,41.6,30.25,SE,128,0.0,9.0,35,0.00,,,0.00,Wunderground v.1.15,2013-04-22 20:50:00,
2013-04-22 16:53:00,70.8,43.2,30.25,North,5,0.0,9.0,37,0.00,,,0.00,Wunderground v.1.15,2013-04-22 20:53:00,
2013-04-22 16:54:00,70.9,41.9,30.25,NNE,30,0.0,9.0,35,0.00,,,0.00,Wunderground v.1.15,2013-04-22 20:54:00,
2013-04-22 16:55:00,70.9,44.0,30.25,ENE,76,0.0,9.0,38,0.00,,,0.00,Wunderground v.1.15,2013-04-22 20:55:00,
2013-04-22 16:56:00,71.0,42.7,30.25,ENE,76,0.0,9.0,36,0.00,,,0.00,Wunderground v.1.15,2013-04-22 20:56:00,
2013-04-22 16:59:00,71.4,42.3,30.25,ESE,108,0.0,9.0,35,0.00,,,0.00,Wunderground v.1.15,2013-04-22 20:59:00,
2013-04-22 17:01:00,71.5,43.8,30.25,ESE,108,0.0,9.0,37,0.00,,,0.00,Wunderground v.1.15,2013-04-22 21:01:00,
2013-04-22 17:02:00,71.9,44.2,30.25,WSW,248,0.0,9.0,37,0.00,,,0.00,Wunderground v.1.15,2013-04-22 21:02:00,
2013-04-22 17:04:00,71.7,41.8,30.24,West,261,0.0,9.0,34,0.00,,,0.00,Wunderground v.1.15,2013-04-22 21:04:00,
2013-04-22 17:07:00,71.5,42.4,30.24,West,276,0.0,9.0,35,0.00,,,0.00,Wunderground v.1.15,2013-04-22 21:07:00,
2013-04-22 17:08:00,71.6,46.6,30.25,West,277,0.0,9.0,41,0.00,,,0.00,Wunderground v.1.15,2013-04-22 21:08:00,
2013-04-22 17:09:00,71.8,46.8,30.24,NNE,15,0.0,9.0,41,0.00,,,0.00,Wunderground v.1.15,2013-04-22 21:09:00,
2013-04-22 17:13:00,72.0,42.1,30.24,ENE,58,0.0,9.0,34,0.00,,,0.00,Wunderground v.1.15,2013-04-22 21:13:00,
2013-04-22 17:15:00,71.8,43.4,30.24,NE,52,0.0,9.0,36,0.00,,,0.00,Wunderground v.1.15,2013-04-22 21:15:00,
2013-04-22 17:18:00,71.6,43.2,30.24,East,86,0.0,9.0,36,0.00,,,0.00,Wunderground v.1.15,2013-04-22 21:18:00,
2013-04-22 17:19:00,71.6,42.5,30.24,East,83,0.0,9.0,35,0.00,,,0.00,Wunderground v.1.15,2013-04-22 21:19:00,
2013-04-22 17:21:00,71.4,43.0,30.24,ENE,76,0.0,9.0,36,0.00,,,0.00,Wunderground v.1.15,2013-04-22 21:21:00,
2013-04-22 17:24:00,71.1,42.8,30.24,ENE,67,0.0,9.0,36,0.00,,,0.00,Wunderground v.1.15,2013-04-22 21:24:00,
2013-04-22 17:25:00,71.1,44.2,30.24,ENE,65,0.0,9.0,38,0.00,,,0.00,Wunderground v.1.15,2013-04-22 21:25:00,
2013-04-22 17:27:00,71.0,42.7,30.24,NE,35,0.0,9.0,36,0.00,,,0.00,Wunderground v.1.15,2013-04-22 21:27:00,
2013-04-22 17:28:00,70.9,42.6,30.24,NE,34,0.0,9.0,36,0.00,,,0.00,Wunderground v.1.15,2013-04-22 21:28:00,
2013-04-22 17:33:00,71.1,42.8,30.24,ENE,58,0.0,9.0,36,0.00,,,0.00,Wunderground v.1.15,2013-04-22 21:33:00,
2013-04-22 17:36:00,71.0,43.4,30.24,ENE,65,0.0,9.0,37,0.00,,,0.00,Wunderground v.1.15,2013-04-22 21:36:00,
2013-04-22 17:39:00,71.1,42.8,30.24,ESE,111,0.0,9.0,36,0.00,,,0.00,Wunderground v.1.15,2013-04-22 21:39:00,
2013-04-22 17:41:00,71.1,44.2,30.24,ENE,65,0.0,9.0,38,0.00,,,0.00,Wunderground v.1.15,2013-04-22 21:41:00,
2013-04-22 17:42:00,71.2,45.6,30.24,East,90,0.0,9.0,40,0.00,,,0.00,Wunderground v.1.15,2013-04-22 21:42:00,
2013-04-22 17:44:00,71.4,43.8,30.24,ENE,76,0.0,9.0,37,0.00,,,0.00,Wunderground v.1.15,2013-04-22 21:44:00,
2013-04-22 17:47:00,71.1,42.0,30.24,SE,133,0.0,9.0,35,0.00,,,0.00,Wunderground v.1.15,2013-04-22 21:47:00,
2013-04-22 17:49:00,71.1,44.2,30.23,NNE,13,0.0,9.0,38,0.00,,,0.00,Wunderground v.1.15,2013-04-22 21:49:00,
2013-04-22 17:52:00,71.2,43.6,30.23,ENE,70,0.0,9.0,37,0.00,,,0.00,Wunderground v.1.15,2013-04-22 21:52:00,
2013-04-22 17:53:00,71.2,44.3,30.23,NE,56,0.0,9.0,38,0.00,,,0.00,Wunderground v.1.15,2013-04-22 21:53:00,
2013-04-22 17:54:00,71.2,44.3,30.23,NE,53,0.0,9.0,38,0.00,,,0.00,Wunderground v.1.15,2013-04-22 21:54:00,
2013-04-22 17:56:00,71.2,44.3,30.23,North,351,1.0,9.0,38,0.00,,,0.00,Wunderground v.1.15,2013-04-22 21:56:00,
2013-04-22 17:58:00,71.0,44.1,30.23,NNE,19,1.0,9.0,38,0.00,,,0.00,Wunderground v.1.15,2013-04-22 21:58:00,
2013-04-22 17:59:00,70.7,43.1,30.23,NNE,15,1.0,9.0,37,0.00,,,0.00,Wunderground v.1.15,2013-04-22 21:59:00,
2013-04-22 18:01:00,70.6,42.3,30.23,NE,42,1.0,1.0,36,0.00,,,0.00,Wunderground v.1.15,2013-04-22 22:01:00,
2013-04-22 18:02:00,70.5,43.0,30.23,NE,50,1.0,9.0,37,0.00,,,0.00,Wunderground v.1.15,2013-04-22 22:02:00,
2013-04-22 18:05:00,70.3,44.8,30.23,ENE,65,1.0,9.0,40,0.00,,,0.00,Wunderground v.1.15,2013-04-22 22:05:00,
2013-04-22 18:08:00,70.2,44.1,30.23,ENE,72,1.0,9.0,39,0.00,,,0.00,Wunderground v.1.15,2013-04-22 22:08:00,
2013-04-22 18:10:00,70.0,42.5,30.23,North,5,1.0,9.0,37,0.00,,,0.00,Wunderground v.1.15,2013-04-22 22:10:00,
2013-04-22 18:14:00,69.7,44.9,30.23,East,82,1.0,9.0,41,0.00,,,0.00,Wunderground v.1.15,2013-04-22 22:14:00,
2013-04-22 18:15:00,69.6,45.5,30.23,ENE,61,1.0,9.0,42,0.00,,,0.00,Wunderground v.1.15,2013-04-22 22:15:00,
2013-04-22 18:17:00,69.5,44.8,30.23,ENE,72,1.0,9.0,41,0.00,,,0.00,Wunderground v.1.15,2013-04-22 22:17:00,
2013-04-22 18:21:00,69.2,43.8,30.23,NNW,345,1.0,9.0,40,0.00,,,0.00,Wunderground v.1.15,2013-04-22 22:21:00,
2013-04-22 18:22:00,69.1,44.4,30.23,ENE,61,1.0,9.0,41,0.00,,,0.00,Wunderground v.1.15,2013-04-22 22:22:00,
2013-04-22 18:23:00,69.1,44.4,30.23,ENE,67,2.0,9.0,41,0.00,,,0.00,Wunderground v.1.15,2013-04-22 22:23:00,
2013-04-22 18:25:00,69.0,43.7,30.23,East,98,2.0,9.0,40,0.00,,,0.00,Wunderground v.1.15,2013-04-22 22:25:00,
2013-04-22 18:29:00,68.9,44.9,30.23,ESE,110,1.0,9.0,42,0.00,,,0.00,Wunderground v.1.15,2013-04-22 22:29:00,
2013-04-22 18:30:00,69.0,44.3,30.23,NE,51,1.0,9.0,41,0.00,,,0.00,Wunderground v.1.15,2013-04-22 22:30:00,
2013-04-22 18:35:00,68.8,44.1,30.23,ENE,61,1.0,9.0,41,0.00,,,0.00,Wunderground v.1.15,2013-04-22 22:35:00,
2013-04-22 18:36:00,68.8,43.5,30.23,ENE,66,1.0,9.0,40,0.00,,,0.00,Wunderground v.1.15,2013-04-22 22:36:00,
2013-04-22 18:38:00,68.7,42.7,30.23,NE,48,1.0,9.0,39,0.00,,,0.00,Wunderground v.1.15,2013-04-22 22:38:00,
2013-04-22 18:39:00,68.6,43.3,30.23,NE,40,1.0,9.0,40,0.00,,,0.00,Wunderground v.1.15,2013-04-22 22:39:00,
2013-04-22 18:40:00,68.6,43.3,30.23,NNE,29,1.0,9.0,40,0.00,,,0.00,Wunderground v.1.15,2013-04-22 22:40:00,
2013-04-22 18:42:00,68.7,43.4,30.23,NE,40,1.0,9.0,40,0.00,,,0.00,Wunderground v.1.15,2013-04-22 22:42:00,
2013-04-22 18:44:00,68.8,44.1,30.23,NNE,32,1.0,9.0,41,0.00,,,0.00,Wunderground v.1.15,2013-04-22 22:44:00,
2013-04-22 18:45:00,68.8,44.1,30.23,ENE,58,0.0,9.0,41,0.00,,,0.00,Wunderground v.1.15,2013-04-22 22:45:00,
2013-04-22 18:49:00,68.8,43.5,30.23,NE,55,0.0,9.0,40,0.00,,,0.00,Wunderground v.1.15,2013-04-22 22:49:00,
2013-04-22 18:50:00,68.8,44.8,30.23,ENE,69,0.0,9.0,42,0.00,,,0.00,Wunderground v.1.15,2013-04-22 22:50:00,
2013-04-22 18:51:00,68.7,43.4,30.23,NE,49,0.0,9.0,40,0.00,,,0.00,Wunderground v.1.15,2013-04-22 22:51:00,
2013-04-22 18:52:00,68.6,43.3,30.23,ENE,76,1.0,9.0,40,0.00,,,0.00,Wunderground v.1.15,2013-04-22 22:52:00,
2013-04-22 18:53:00,68.5,44.5,30.23,East,81,1.0,9.0,42,0.00,,,0.00,Wunderground v.1.15,2013-04-22 22:53:00,
2013-04-22 18:55:00,68.4,43.8,30.23,ENE,61,1.0,9.0,41,0.00,,,0.00,Wunderground v.1.15,2013-04-22 22:55:00,
2013-04-22 18:57:00,68.3,44.3,30.23,NE,49,1.0,9.0,42,0.00,,,0.00,Wunderground v.1.15,2013-04-22 22:57:00,
2013-04-22 18:58:00,68.2,44.2,30.23,East,80,1.0,9.0,42,0.00,,,0.00,Wunderground v.1.15,2013-04-22 22:58:00,
2013-04-22 19:02:00,68.0,43.4,30.23,NE,40,1.0,9.0,41,0.00,,,0.00,Wunderground v.1.15,2013-04-22 23:02:00,
2013-04-22 19:03:00,67.9,44.0,30.23,North,360,1.0,9.0,42,0.00,,,0.00,Wunderground v.1.15,2013-04-22 23:03:00,
2013-04-22 19:04:00,67.9,44.6,30.23,NE,45,1.0,9.0,43,0.00,,,0.00,Wunderground v.1.15,2013-04-22 23:04:00,
2013-04-22 19:08:00,67.8,44.5,30.23,ENE,76,1.0,9.0,43,0.00,,,0.00,Wunderground v.1.15,2013-04-22 23:08:00,
2013-04-22 19:09:00,67.8,43.9,30.23,North,10,1.0,9.0,42,0.00,,,0.00,Wunderground v.1.15,2013-04-22 23:09:00,
2013-04-22 19:12:00,67.7,43.8,30.23,ENE,61,1.0,9.0,42,0.00,,,0.00,Wunderground v.1.15,2013-04-22 23:12:00,
2013-04-22 19:14:00,67.7,43.8,30.23,ENE,71,1.0,9.0,42,0.00,,,0.00,Wunderground v.1.15,2013-04-22 23:14:00,
2013-04-22 19:16:00,67.5,43.6,30.23,ENE,66,1.0,9.0,42,0.00,,,0.00,Wunderground v.1.15,2013-04-22 23:16:00,
2013-04-22 19:17:00,67.4,43.5,30.23,NE,55,1.0,9.0,42,0.00,,,0.00,Wunderground v.1.15,2013-04-22 23:17:00,
2013-04-22 19:18:00,67.3,44.0,30.23,ENE,57,1.0,9.0,43,0.00,,,0.00,Wunderground v.1.15,2013-04-22 23:18:00,
2013-04-22 19:21:00,67.1,43.8,30.23,NE,55,1.0,9.0,43,0.00,,,0.00,Wunderground v.1.15,2013-04-22 23:21:00,
2013-04-22 19:23:00,66.9,43.7,30.23,NE,54,1.0,9.0,43,0.00,,,0.00,Wunderground v.1.15,2013-04-22 23:23:00,
2013-04-22 19:25:00,66.7,43.5,30.23,NE,53,1.0,9.0,43,0.00,,,0.00,Wunderground v.1.15,2013-04-22 23:25:00,
2013-04-22 19:27:00,66.7,44.1,30.23,NE,53,1.0,9.0,44,0.00,,,0.00,Wunderground v.1.15,2013-04-22 23:27:00,
2013-04-22 19:30:00,66.5,43.9,30.23,NE,56,1.0,9.0,44,0.00,,,0.00,Wunderground v.1.15,2013-04-22 23:30:00,
2013-04-22 19:32:00,66.4,43.2,30.23,NE,46,1.0,9.0,43,0.00,,,0.00,Wunderground v.1.15,2013-04-22 23:32:00,
2013-04-22 19:33:00,66.3,43.7,30.22,NNE,32,1.0,9.0,44,0.00,,,0.00,Wunderground v.1.15,2013-04-22 23:33:00,
2013-04-22 19:34:00,66.3,43.7,30.22,NE,36,1.0,9.0,44,0.00,,,0.00,Wunderground v.1.15,2013-04-22 23:34:00,
2013-04-22 19:37:00,66.2,44.2,30.23,NNE,21,0.0,9.0,45,0.00,,,0.00,Wunderground v.1.15,2013-04-22 23:37:00,
2013-04-22 19:39:00,66.2,43.6,30.23,NNE,30,0.0,9.0,44,0.00,,,0.00,Wunderground v.1.15,2013-04-22 23:39:00,
2013-04-22 19:40:00,66.1,43.5,30.22,NNE,16,0.0,9.0,44,0.00,,,0.00,Wunderground v.1.15,2013-04-22 23:40:00,
2013-04-22 19:41:00,66.1,44.1,30.23,NE,38,0.0,9.0,45,0.00,,,0.00,Wunderground v.1.15,2013-04-22 23:41:00,
2013-04-22 19:44:00,65.9,43.9,30.23,NE,44,0.0,9.0,45,0.00,,,0.00,Wunderground v.1.15,2013-04-22 23:44:00,
2013-04-22 19:45:00,65.9,43.9,30.22,NE,44,0.0,9.0,45,0.00,,,0.00,Wunderground v.1.15,2013-04-22 23:45:00,
2013-04-22 19:46:00,65.8,43.9,30.23,ENE,61,0.0,9.0,45,0.00,,,0.00,Wunderground v.1.15,2013-04-22 23:46:00,
2013-04-22 19:51:00,65.5,44.2,30.22,NE,49,1.0,1.0,46,0.00,,,0.00,Wunderground v.1.15,2013-04-22 23:51:00,
2013-04-22 19:52:00,65.4,43.5,30.22,NE,41,1.0,9.0,45,0.00,,,0.00,Wunderground v.1.15,2013-04-22 23:52:00,
2013-04-22 19:53:00,65.4,43.5,30.22,NE,50,1.0,9.0,45,0.00,,,0.00,Wunderground v.1.15,2013-04-22 23:53:00,
2013-04-22 19:56:00,65.2,43.3,30.22,NNE,14,1.0,9.0,45,0.00,,,0.00,Wunderground v.1.15,2013-04-22 23:56:00,
2013-04-22 19:57:00,65.2,43.9,30.22,North,355,1.0,9.0,46,0.00,,,0.00,Wunderground v.1.15,2013-04-22 23:57:00,
2013-04-22 20:01:00,65.0,43.7,30.22,NE,56,0.0,9.0,46,0.00,,,0.00,Wunderground v.1.15,2013-04-23 00:01:00,
2013-04-22 20:02:00,64.9,44.2,30.22,NE,51,0.0,9.0,47,0.00,,,0.00,Wunderground v.1.15,2013-04-23 00:02:00,
2013-04-22 20:03:00,64.8,44.1,30.22,NE,51,0.0,9.0,47,0.00,,,0.00,Wunderground v.1.15,2013-04-23 00:03:00,
2013-04-22 20:04:00,64.8,44.1,30.22,NE,51,0.0,9.0,47,0.00,,,0.00,Wunderground v.1.15,2013-04-23 00:04:00,
2013-04-22 20:07:00,64.4,43.7,30.22,ENE,60,0.0,9.0,47,0.00,,,0.00,Wunderground v.1.15,2013-04-23 00:07:00,
2013-04-22 20:10:00,64.2,43.5,30.22,ENE,61,0.0,9.0,47,0.00,,,0.00,Wunderground v.1.15,2013-04-23 00:10:00,
2013-04-22 20:12:00,64.0,43.4,30.22,NE,49,1.0,9.0,47,0.00,,,0.00,Wunderground v.1.15,2013-04-23 00:12:00,
2013-04-22 20:16:00,63.9,43.8,30.22,ENE,65,1.0,9.0,48,0.00,,,0.00,Wunderground v.1.15,2013-04-23 00:16:00,
2013-04-22 20:17:00,63.8,43.7,30.22,ENE,65,1.0,9.0,48,0.00,,,0.00,Wunderground v.1.15,2013-04-23 00:17:00,
2013-04-22 20:18:00,63.7,43.6,30.22,ENE,65,1.0,9.0,48,0.00,,,0.00,Wunderground v.1.15,2013-04-23 00:18:00,
2013-04-22 20:20:00,63.6,43.5,30.22,ENE,66,1.0,9.0,48,0.00,,,0.00,Wunderground v.1.15,2013-04-23 00:20:00,
2013-04-22 20:22:00,63.5,43.4,30.22,ENE,66,0.0,9.0,48,0.00,,,0.00,Wunderground v.1.15,2013-04-23 00:22:00,
2013-04-22 20:23:00,63.4,43.4,30.22,ENE,66,0.0,9.0,48,0.00,,,0.00,Wunderground v.1.15,2013-04-23 00:23:00,
2013-04-22 20:24:00,63.4,43.4,30.22,ENE,66,0.0,9.0,48,0.00,,,0.00,Wunderground v.1.15,2013-04-23 00:24:00,
2013-04-22 20:26:00,63.3,43.3,30.22,ENE,75,0.0,9.0,48,0.00,,,0.00,Wunderground v.1.15,2013-04-23 00:26:00,
2013-04-22 20:28:00,63.2,43.2,30.22,ENE,74,0.0,9.0,48,0.00,,,0.00,Wunderground v.1.15,2013-04-23 00:28:00,
2013-04-22 20:29:00,63.2,43.2,30.22,ENE,74,0.0,9.0,48,0.00,,,0.00,Wunderground v.1.15,2013-04-23 00:29:00,
2013-04-22 20:31:00,63.1,43.1,30.22,ENE,78,0.0,9.0,48,0.00,,,0.00,Wunderground v.1.15,2013-04-23 00:31:00,
2013-04-22 20:32:00,63.1,43.1,30.22,East,79,0.0,9.0,48,0.00,,,0.00,Wunderground v.1.15,2013-04-23 00:32:00,
2013-04-22 20:34:00,63.0,43.0,30.22,East,80,0.0,9.0,48,0.00,,,0.00,Wunderground v.1.15,2013-04-23 00:34:00,
2013-04-22 20:35:00,63.0,43.5,30.22,East,80,0.0,9.0,49,0.00,,,0.00,Wunderground v.1.15,2013-04-23 00:35:00,
2013-04-22 20:37:00,63.0,43.5,30.22,East,89,0.0,9.0,49,0.00,,,0.00,Wunderground v.1.15,2013-04-23 00:37:00,
2013-04-22 20:38:00,62.9,43.4,30.22,East,89,0.0,9.0,49,0.00,,,0.00,Wunderground v.1.15,2013-04-23 00:38:00,
2013-04-22 20:41:00,62.9,42.9,30.22,ENE,78,0.0,9.0,48,0.00,,,0.00,Wunderground v.1.15,2013-04-23 00:41:00,
2013-04-22 20:45:00,62.7,42.7,30.22,East,83,0.0,9.0,48,0.00,,,0.00,Wunderground v.1.15,2013-04-23 00:45:00,
2013-04-22 20:46:00,62.7,42.7,30.22,East,82,0.0,9.0,48,0.00,,,0.00,Wunderground v.1.15,2013-04-23 00:46:00,
2013-04-22 20:48:00,62.6,42.6,30.22,East,87,0.0,9.0,48,0.00,,,0.00,Wunderground v.1.15,2013-04-23 00:48:00,
2013-04-22 20:51:00,62.4,43.0,30.22,East,87,0.0,9.0,49,0.00,,,0.00,Wunderground v.1.15,2013-04-23 00:51:00,
2013-04-22 20:53:00,62.4,43.0,30.22,East,87,0.0,9.0,49,0.00,,,0.00,Wunderground v.1.15,2013-04-23 00:53:00,
2013-04-22 20:54:00,62.3,42.9,30.22,East,87,0.0,9.0,49,0.00,,,0.00,Wunderground v.1.15,2013-04-23 00:54:00,
2013-04-22 20:55:00,62.3,42.9,30.22,East,84,0.0,9.0,49,0.00,,,0.00,Wunderground v.1.15,2013-04-23 00:55:00,
2013-04-22 20:56:00,62.2,42.8,30.22,East,84,0.0,9.0,49,0.00,,,0.00,Wunderground v.1.15,2013-04-23 00:56:00,
2013-04-22 20:58:00,62.1,42.7,30.22,East,84,0.0,9.0,49,0.00,,,0.00,Wunderground v.1.15,2013-04-23 00:58:00,
2013-04-22 21:01:00,62.0,42.6,30.22,ENE,76,0.0,9.0,49,0.00,,,0.00,Wunderground v.1.15,2013-04-23 01:01:00,
2013-04-22 21:02:00,61.9,42.5,30.22,ENE,76,0.0,9.0,49,0.00,,,0.00,Wunderground v.1.15,2013-04-23 01:02:00,
2013-04-22 21:03:00,61.9,42.5,30.22,ENE,76,0.0,9.0,49,0.00,,,0.00,Wunderground v.1.15,2013-04-23 01:03:00,
2013-04-22 21:06:00,61.7,42.9,30.22,ENE,76,0.0,9.0,50,0.00,,,0.00,Wunderground v.1.15,2013-04-23 01:06:00,
2013-04-22 21:07:00,61.7,42.3,30.22,ENE,76,0.0,9.0,49,0.00,,,0.00,Wunderground v.1.15,2013-04-23 01:07:00,
2013-04-22 21:08:00,61.6,42.2,30.22,ENE,76,0.0,9.0,49,0.00,,,0.00,Wunderground v.1.15,2013-04-23 01:08:00,
2013-04-22 21:11:00,61.6,42.2,30.22,ENE,76,0.0,9.0,49,0.00,,,0.00,Wunderground v.1.15,2013-04-23 01:11:00,
2013-04-22 21:14:00,61.5,42.2,30.22,ENE,76,0.0,9.0,49,0.00,,,0.00,Wunderground v.1.15,2013-04-23 01:14:00,
2013-04-22 21:15:00,61.5,42.2,30.22,ENE,76,0.0,9.0,49,0.00,,,0.00,Wunderground v.1.15,2013-04-23 01:15:00,
2013-04-22 21:16:00,61.4,42.1,30.22,ENE,76,0.0,9.0,49,0.00,,,0.00,Wunderground v.1.15,2013-04-23 01:16:00,
2013-04-22 21:19:00,61.4,42.1,30.22,ENE,76,0.0,9.0,49,0.00,,,0.00,Wunderground v.1.15,2013-04-23 01:19:00,
2013-04-22 21:20:00,61.3,42.0,30.22,ENE,76,0.0,9.0,49,0.00,,,0.00,Wunderground v.1.15,2013-04-23 01:20:00,
2013-04-22 21:22:00,61.3,42.5,30.22,ENE,76,0.0,9.0,50,0.00,,,0.00,Wunderground v.1.15,2013-04-23 01:22:00,
2013-04-22 21:23:00,61.3,42.0,30.22,ENE,76,0.0,9.0,49,0.00,,,0.00,Wunderground v.1.15,2013-04-23 01:23:00,
2013-04-22 21:25:00,61.3,42.0,30.22,ENE,76,0.0,9.0,49,0.00,,,0.00,Wunderground v.1.15,2013-04-23 01:25:00,
2013-04-22 21:26:00,61.3,42.0,30.22,ENE,76,0.0,9.0,49,0.00,,,0.00,Wunderground v.1.15,2013-04-23 01:26:00,
2013-04-22 21:29:00,61.3,42.5,30.22,ENE,76,0.0,9.0,50,0.00,,,0.00,Wunderground v.1.15,2013-04-23 01:29:00,
2013-04-22 21:30:00,61.3,42.0,30.22,ENE,76,0.0,9.0,49,0.00,,,0.00,Wunderground v.1.15,2013-04-23 01:30:00,
2013-04-22 21:31:00,61.3,42.5,30.22,ENE,76,0.0,9.0,50,0.00,,,0.00,Wunderground v.1.15,2013-04-23 01:31:00,
2013-04-22 21:34:00,61.3,42.5,30.22,ENE,76,0.0,9.0,50,0.00,,,0.00,Wunderground v.1.15,2013-04-23 01:34:00,
2013-04-22 21:36:00,61.3,42.5,30.22,ENE,76,0.0,9.0,50,0.00,,,0.00,Wunderground v.1.15,2013-04-23 01:36:00,
2013-04-22 21:38:00,61.2,42.4,30.22,ENE,76,0.0,9.0,50,0.00,,,0.00,Wunderground v.1.15,2013-04-23 01:38:00,
2013-04-22 21:40:00,61.2,42.4,30.22,ENE,76,0.0,9.0,50,0.00,,,0.00,Wunderground v.1.15,2013-04-23 01:40:00,
2013-04-22 21:41:00,61.1,42.3,30.22,ENE,76,0.0,9.0,50,0.00,,,0.00,Wunderground v.1.15,2013-04-23 01:41:00,
2013-04-22 21:42:00,61.1,42.3,30.22,ENE,76,0.0,9.0,50,0.00,,,0.00,Wunderground v.1.15,2013-04-23 01:42:00,
2013-04-22 21:43:00,61.1,42.3,30.22,ENE,76,0.0,9.0,50,0.00,,,0.00,Wunderground v.1.15,2013-04-23 01:43:00,
2013-04-22 21:47:00,61.0,42.2,30.22,ENE,76,0.0,9.0,50,0.00,,,0.00,Wunderground v.1.15,2013-04-23 01:47:00,
2013-04-22 21:50:00,61.0,42.2,30.22,ENE,76,0.0,9.0,50,0.00,,,0.00,Wunderground v.1.15,2013-04-23 01:50:00,
2013-04-22 21:54:00,60.9,42.1,30.22,ENE,76,0.0,9.0,50,0.00,,,0.00,Wunderground v.1.15,2013-04-23 01:54:00,
2013-04-22 21:57:00,60.9,42.6,30.22,ENE,76,0.0,9.0,51,0.00,,,0.00,Wunderground v.1.15,2013-04-23 01:57:00,
2013-04-22 21:58:00,60.8,42.5,30.22,ENE,76,0.0,9.0,51,0.00,,,0.00,Wunderground v.1.15,2013-04-23 01:58:00,
2013-04-22 21:59:00,60.8,42.5,30.22,ENE,76,0.0,9.0,51,0.00,,,0.00,Wunderground v.1.15,2013-04-23 01:59:00,
2013-04-22 22:02:00,60.7,42.5,30.22,ENE,76,0.0,9.0,51,0.00,,,0.00,Wunderground v.1.15,2013-04-23 02:02:00,
2013-04-22 22:04:00,60.7,42.5,30.22,ENE,76,0.0,9.0,51,0.00,,,0.00,Wunderground v.1.15,2013-04-23 02:04:00,
2013-04-22 22:07:00,60.7,41.9,30.22,ENE,76,0.0,9.0,50,0.00,,,0.00,Wunderground v.1.15,2013-04-23 02:07:00,
2013-04-22 22:08:00,60.7,41.9,30.22,ENE,76,0.0,9.0,50,0.00,,,0.00,Wunderground v.1.15,2013-04-23 02:08:00,
2013-04-22 22:09:00,60.7,41.9,30.22,ENE,76,0.0,9.0,50,0.00,,,0.00,Wunderground v.1.15,2013-04-23 02:09:00,
2013-04-22 22:11:00,60.6,41.8,30.22,ENE,76,0.0,9.0,50,0.00,,,0.00,Wunderground v.1.15,2013-04-23 02:11:00,
2013-04-22 22:13:00,60.6,41.8,30.22,ENE,76,0.0,9.0,50,0.00,,,0.00,Wunderground v.1.15,2013-04-23 02:13:00,
2013-04-22 22:14:00,60.6,42.4,30.22,ENE,76,0.0,9.0,51,0.00,,,0.00,Wunderground v.1.15,2013-04-23 02:14:00,
2013-04-22 22:16:00,60.5,41.8,30.22,ENE,76,0.0,9.0,50,0.00,,,0.00,Wunderground v.1.15,2013-04-23 02:16:00,
2013-04-22 22:18:00,60.5,42.3,30.22,ENE,76,0.0,9.0,51,0.00,,,0.00,Wunderground v.1.15,2013-04-23 02:18:00,
2013-04-22 22:19:00,60.4,42.2,30.22,ENE,76,0.0,9.0,51,0.00,,,0.00,Wunderground v.1.15,2013-04-23 02:19:00,
2013-04-22 22:21:00,60.4,42.2,30.22,ENE,76,0.0,9.0,51,0.00,,,0.00,Wunderground v.1.15,2013-04-23 02:21:00,
2013-04-22 22:23:00,60.4,42.2,30.22,ENE,76,0.0,9.0,51,0.00,,,0.00,Wunderground v.1.15,2013-04-23 02:23:00,
2013-04-22 22:25:00,60.3,42.1,30.22,ENE,76,0.0,9.0,51,0.00,,,0.00,Wunderground v.1.15,2013-04-23 02:25:00,
2013-04-22 22:26:00,60.3,42.1,30.22,ENE,76,0.0,9.0,51,0.00,,,0.00,Wunderground v.1.15,2013-04-23 02:26:00,
2013-04-22 22:27:00,60.2,42.0,30.22,ENE,76,0.0,9.0,51,0.00,,,0.00,Wunderground v.1.15,2013-04-23 02:27:00,
2013-04-22 22:30:00,60.1,42.4,30.22,ENE,76,0.0,9.0,52,0.00,,,0.00,Wunderground v.1.15,2013-04-23 02:30:00,
2013-04-22 22:32:00,60.0,42.3,30.23,ENE,76,0.0,9.0,52,0.00,,,0.00,Wunderground v.1.15,2013-04-23 02:32:00,
2013-04-22 22:33:00,59.9,42.2,30.23,ENE,76,0.0,9.0,52,0.00,,,0.00,Wunderground v.1.15,2013-04-23 02:33:00,
2013-04-22 22:36:00,59.8,42.1,30.23,ENE,76,0.0,9.0,52,0.00,,,0.00,Wunderground v.1.15,2013-04-23 02:36:00,
2013-04-22 22:37:00,59.7,42.0,30.22,ENE,76,0.0,9.0,52,0.00,,,0.00,Wunderground v.1.15,2013-04-23 02:37:00,
2013-04-22 22:40:00,59.7,42.0,30.22,ENE,76,0.0,9.0,52,0.00,,,0.00,Wunderground v.1.15,2013-04-23 02:40:00,
2013-04-22 22:41:00,59.6,41.9,30.22,ENE,76,0.0,9.0,52,0.00,,,0.00,Wunderground v.1.15,2013-04-23 02:41:00,
2013-04-22 22:42:00,59.6,41.9,30.22,ENE,76,0.0,9.0,52,0.00,,,0.00,Wunderground v.1.15,2013-04-23 02:42:00,
2013-04-22 22:44:00,59.5,41.9,30.23,ENE,76,0.0,9.0,52,0.00,,,0.00,Wunderground v.1.15,2013-04-23 02:44:00,
2013-04-22 22:46:00,59.5,41.9,30.23,ENE,76,0.0,9.0,52,0.00,,,0.00,Wunderground v.1.15,2013-04-23 02:46:00,
2013-04-22 22:49:00,59.4,41.8,30.22,ENE,76,0.0,9.0,52,0.00,,,0.00,Wunderground v.1.15,2013-04-23 02:49:00,
2013-04-22 22:51:00,59.3,42.2,30.23,ENE,76,0.0,9.0,53,0.00,,,0.00,Wunderground v.1.15,2013-04-23 02:51:00,
2013-04-22 22:54:00,59.2,42.1,30.22,ENE,76,0.0,9.0,53,0.00,,,0.00,Wunderground v.1.15,2013-04-23 02:54:00,
2013-04-22 22:59:00,59.0,41.9,30.23,ENE,76,0.0,9.0,53,0.00,,,0.00,Wunderground v.1.15,2013-04-23 02:59:00,
2013-04-22 23:01:00,59.0,41.9,30.23,ENE,76,0.0,9.0,53,0.00,,,0.00,Wunderground v.1.15,2013-04-23 03:01:00,
2013-04-22 23:04:00,59.0,41.9,30.23,ENE,76,0.0,9.0,53,0.00,,,0.00,Wunderground v.1.15,2013-04-23 03:04:00,
2013-04-22 23:06:00,59.0,41.9,30.23,ENE,76,0.0,9.0,53,0.00,,,0.00,Wunderground v.1.15,2013-04-23 03:06:00,
2013-04-22 23:08:00,58.9,41.8,30.23,ENE,76,0.0,9.0,53,0.00,,,0.00,Wunderground v.1.15,2013-04-23 03:08:00,
2013-04-22 23:09:00,58.9,41.8,30.23,ENE,76,0.0,9.0,53,0.00,,,0.00,Wunderground v.1.15,2013-04-23 03:09:00,
2013-04-22 23:10:00,58.9,41.8,30.23,ENE,76,0.0,9.0,53,0.00,,,0.00,Wunderground v.1.15,2013-04-23 03:10:00,
2013-04-22 23:12:00,58.8,41.7,30.23,ENE,76,0.0,9.0,53,0.00,,,0.00,Wunderground v.1.15,2013-04-23 03:12:00,
2013-04-22 23:17:00,58.6,42.0,30.23,ENE,76,0.0,9.0,54,0.00,,,0.00,Wunderground v.1.15,2013-04-23 03:17:00,
2013-04-22 23:18:00,58.5,41.9,30.23,ENE,76,0.0,9.0,54,0.00,,,0.00,Wunderground v.1.15,2013-04-23 03:18:00,
2013-04-22 23:19:00,58.5,41.9,30.23,ENE,76,0.0,9.0,54,0.00,,,0.00,Wunderground v.1.15,2013-04-23 03:19:00,
2013-04-22 23:23:00,58.4,42.3,30.23,ENE,76,0.0,9.0,55,0.00,,,0.00,Wunderground v.1.15,2013-04-23 03:23:00,
2013-04-22 23:25:00,58.3,42.2,30.23,ENE,76,0.0,9.0,55,0.00,,,0.00,Wunderground v.1.15,2013-04-23 03:25:00,
2013-04-22 23:26:00,58.3,42.2,30.23,ENE,76,0.0,9.0,55,0.00,,,0.00,Wunderground v.1.15,2013-04-23 03:26:00,
2013-04-22 23:27:00,58.3,42.2,30.23,ENE,78,0.0,9.0,55,0.00,,,0.00,Wunderground v.1.15,2013-04-23 03:27:00,
2013-04-22 23:28:00,58.2,42.1,30.23,ENE,78,0.0,9.0,55,0.00,,,0.00,Wunderground v.1.15,2013-04-23 03:28:00,
2013-04-22 23:33:00,58.2,42.1,30.23,ENE,77,0.0,9.0,55,0.00,,,0.00,Wunderground v.1.15,2013-04-23 03:33:00,
2013-04-22 23:34:00,58.2,42.1,30.23,ENE,77,0.0,9.0,55,0.00,,,0.00,Wunderground v.1.15,2013-04-23 03:34:00,
2013-04-22 23:36:00,58.2,42.1,30.23,ENE,77,0.0,9.0,55,0.00,,,0.00,Wunderground v.1.15,2013-04-23 03:36:00,
2013-04-22 23:37:00,58.2,42.1,30.23,ENE,77,0.0,9.0,55,0.00,,,0.00,Wunderground v.1.15,2013-04-23 03:37:00,
2013-04-22 23:40:00,58.1,42.0,30.23,ENE,78,0.0,9.0,55,0.00,,,0.00,Wunderground v.1.15,2013-04-23 03:40:00,
2013-04-22 23:42:00,58.1,42.0,30.23,ENE,78,0.0,9.0,55,0.00,,,0.00,Wunderground v.1.15,2013-04-23 03:42:00,
2013-04-22 23:43:00,58.0,41.9,30.23,ENE,77,0.0,9.0,55,0.00,,,0.00,Wunderground v.1.15,2013-04-23 03:43:00,
2013-04-22 23:44:00,58.0,41.9,30.23,ENE,78,0.0,9.0,55,0.00,,,0.00,Wunderground v.1.15,2013-04-23 03:44:00,
2013-04-22 23:48:00,58.0,41.9,30.23,ENE,78,0.0,9.0,55,0.00,,,0.00,Wunderground v.1.15,2013-04-23 03:48:00,
2013-04-22 23:49:00,58.0,41.9,30.23,ENE,77,0.0,9.0,55,0.00,,,0.00,Wunderground v.1.15,2013-04-23 03:49:00,
2013-04-22 23:51:00,58.0,41.9,30.23,ENE,78,0.0,9.0,55,0.00,,,0.00,Wunderground v.1.15,2013-04-23 03:51:00,
2013-04-22 23:52:00,58.0,41.9,30.23,ENE,78,0.0,9.0,55,0.00,,,0.00,Wunderground v.1.15,2013-04-23 03:52:00,
2013-04-22 23:55:00,57.9,42.3,30.23,ENE,77,0.0,9.0,56,0.00,,,0.00,Wunderground v.1.15,2013-04-23 03:55:00,
2013-04-22 23:57:00,57.9,41.8,30.22,ENE,78,0.0,9.0,55,0.00,,,0.00,Wunderground v.1.15,2013-04-23 03:57:00,
2013-04-22 23:59:00,57.9,41.8,30.22,ENE,77,0.0,9.0,55,0.00,,,0.00,Wunderground v.1.15,2013-04-23 03:59:00,